Time,TemperatureF,DewpointF,PressureIn,WindDirection,WindDirectionDegrees,WindSpeedMPH,WindSpeedGustMPH,Humidity,HourlyPrecipIn,Conditions,Clouds,dailyrainin,SoftwareType,DateUTC
2013-10-12 00:00:00,63.6,57.7,29.99,NNW,327,0.0,1.1,81,0.00,CLR,,0.00,WeatherDisplay:10.37,2013-10-12 04:00:00,
2013-10-12 00:01:00,63.6,57.3,29.99,NNW,327,0.0,1.1,80,0.00,CLR,,0.00,WeatherDisplay:10.37,2013-10-12 04:01:00,
2013-10-12 00:02:00,63.6,57.7,29.99,NNW,327,0.0,0.0,81,0.00,CLR,,0.00,WeatherDisplay:10.37,2013-10-12 04:02:00,
2013-10-12 00:06:00,63.7,57.4,29.99,NNW,327,0.0,0.0,80,0.00,CLR,,0.00,WeatherDisplay:10.37,2013-10-12 04:06:00,
2013-10-12 00:07:00,63.7,57.4,29.99,NNW,327,0.0,0.0,80,0.00,CLR,,0.00,WeatherDisplay:10.37,2013-10-12 04:07:00,
2013-10-12 00:11:00,63.5,57.2,29.99,NNW,327,0.0,0.0,80,0.00,CLR,,0.00,WeatherDisplay:10.37,2013-10-12 04:11:00,
2013-10-12 00:12:00,63.5,57.2,29.99,NNW,327,0.0,0.0,80,0.00,CLR,,0.00,WeatherDisplay:10.37,2013-10-12 04:12:00,
2013-10-12 00:16:00,63.5,57.2,29.99,NNW,327,0.0,0.0,80,0.00,CLR,,0.00,WeatherDisplay:10.37,2013-10-12 04:16:00,
2013-10-12 00:17:00,63.5,57.2,29.99,NNW,327,0.0,0.0,80,0.00,CLR,,0.00,WeatherDisplay:10.37,2013-10-12 04:17:00,
2013-10-12 00:18:00,63.5,57.2,29.99,NNW,327,0.0,0.0,80,0.00,CLR,,0.00,WeatherDisplay:10.37,2013-10-12 04:18:00,
2013-10-12 00:21:00,63.4,57.1,29.99,NNW,327,0.0,0.0,80,0.00,CLR,,0.00,WeatherDisplay:10.37,2013-10-12 04:21:00,
2013-10-12 00:22:00,63.5,57.2,29.99,NNW,327,0.0,0.0,80,0.00,CLR,,0.00,WeatherDisplay:10.37,2013-10-12 04:22:00,
2013-10-12 00:23:00,63.4,57.1,29.99,NNW,327,0.0,0.0,80,0.00,CLR,,0.00,WeatherDisplay:10.37,2013-10-12 04:23:00,
2013-10-12 00:27:00,63.2,57.3,29.99,NNW,327,0.0,0.0,81,0.00,CLR,,0.00,WeatherDisplay:10.37,2013-10-12 04:27:00,
2013-10-12 00:28:00,63.1,57.2,29.99,NNW,327,0.0,0.0,81,0.00,CLR,,0.00,WeatherDisplay:10.37,2013-10-12 04:28:00,
2013-10-12 00:29:00,63.1,57.2,29.99,NNW,327,0.0,0.0,81,0.00,CLR,,0.00,WeatherDisplay:10.37,2013-10-12 04:29:00,
2013-10-12 00:32:00,63.1,57.2,29.99,NNW,327,0.0,0.0,81,0.00,CLR,,0.00,WeatherDisplay:10.37,2013-10-12 04:32:00,
2013-10-12 00:33:00,63.1,57.2,29.99,NNW,327,0.0,0.0,81,0.00,CLR,,0.00,WeatherDisplay:10.37,2013-10-12 04:33:00,
2013-10-12 00:34:00,63.1,57.2,29.99,NNW,327,0.0,0.0,81,0.00,CLR,,0.00,WeatherDisplay:10.37,2013-10-12 04:34:00,
2013-10-12 00:37:00,63.1,56.8,29.99,NNW,327,0.0,0.0,80,0.00,CLR,,0.00,WeatherDisplay:10.37,2013-10-12 04:37:00,
2013-10-12 00:38:00,63.0,56.7,29.99,NNW,327,0.0,0.0,80,0.00,CLR,,0.00,WeatherDisplay:10.37,2013-10-12 04:38:00,
2013-10-12 00:39:00,63.0,56.7,29.99,NNW,327,0.0,0.0,80,0.00,CLR,,0.00,WeatherDisplay:10.37,2013-10-12 04:39:00,
2013-10-12 00:42:00,62.9,56.6,29.99,NNW,327,0.0,0.0,80,0.00,CLR,,0.00,WeatherDisplay:10.37,2013-10-12 04:42:00,
2013-10-12 00:43:00,62.8,56.5,29.99,NNW,327,0.0,0.0,80,0.00,CLR,,0.00,WeatherDisplay:10.37,2013-10-12 04:43:00,
2013-10-12 00:44:00,62.7,56.4,29.99,NNW,327,0.0,0.0,80,0.00,CLR,,0.00,WeatherDisplay:10.37,2013-10-12 04:44:00,
2013-10-12 00:48:00,62.6,57.0,29.99,NNW,327,0.0,0.0,82,0.00,CLR,,0.00,WeatherDisplay:10.37,2013-10-12 04:48:00,
2013-10-12 00:49:00,62.5,56.6,29.99,NNW,327,0.0,0.0,81,0.00,CLR,,0.00,WeatherDisplay:10.37,2013-10-12 04:49:00,
2013-10-12 00:50:00,62.5,56.9,29.99,NNW,327,0.0,0.0,82,0.00,CLR,,0.00,WeatherDisplay:10.37,2013-10-12 04:50:00,
2013-10-12 00:53:00,62.5,57.3,29.99,NNW,327,0.0,0.0,83,0.00,CLR,,0.00,WeatherDisplay:10.37,2013-10-12 04:53:00,
2013-10-12 00:54:00,62.5,56.9,29.99,NNW,327,0.0,0.0,82,0.00,CLR,,0.00,WeatherDisplay:10.37,2013-10-12 04:54:00,
2013-10-12 00:55:00,62.6,57.0,29.99,NNW,327,0.0,0.0,82,0.00,CLR,,0.00,WeatherDisplay:10.37,2013-10-12 04:55:00,
2013-10-12 00:58:00,62.5,56.6,29.99,NNW,327,0.0,0.0,81,0.00,CLR,,0.00,WeatherDisplay:10.37,2013-10-12 04:58:00,
2013-10-12 00:59:00,62.5,56.6,29.99,NNW,327,0.0,0.0,81,0.00,CLR,,0.00,WeatherDisplay:10.37,2013-10-12 04:59:00,
2013-10-12 01:00:00,62.5,56.6,29.99,NNW,327,0.0,0.0,81,0.00,CLR,,0.00,WeatherDisplay:10.37,2013-10-12 05:00:00,
2013-10-12 01:03:00,62.5,56.6,29.99,NNW,327,0.0,0.0,81,0.00,CLR,,0.00,WeatherDisplay:10.37,2013-10-12 05:03:00,
2013-10-12 01:04:00,62.5,56.6,29.99,NNW,327,0.0,0.0,81,0.00,CLR,,0.00,WeatherDisplay:10.37,2013-10-12 05:04:00,
2013-10-12 01:05:00,62.5,56.6,29.99,NNW,327,0.0,0.0,81,0.00,CLR,,0.00,WeatherDisplay:10.37,2013-10-12 05:05:00,
2013-10-12 01:08:00,62.4,56.5,29.99,NNW,327,0.0,0.0,81,0.00,CLR,,0.00,WeatherDisplay:10.37,2013-10-12 05:08:00,
2013-10-12 01:09:00,62.4,56.5,29.99,NNW,327,0.0,0.0,81,0.00,CLR,,0.00,WeatherDisplay:10.37,2013-10-12 05:09:00,
2013-10-12 01:10:00,62.4,56.5,29.99,NNW,327,0.0,0.0,81,0.00,CLR,,0.00,WeatherDisplay:10.37,2013-10-12 05:10:00,
2013-10-12 01:14:00,62.2,56.3,29.99,NNW,327,0.0,0.0,81,0.00,CLR,,0.00,WeatherDisplay:10.37,2013-10-12 05:14:00,
2013-10-12 01:15:00,62.2,56.3,30.00,NNW,327,0.0,0.0,81,0.00,CLR,,0.00,WeatherDisplay:10.37,2013-10-12 05:15:00,
2013-10-12 01:19:00,62.1,56.2,30.00,NNW,327,0.0,0.0,81,0.00,CLR,,0.00,WeatherDisplay:10.37,2013-10-12 05:19:00,
2013-10-12 01:21:00,62.0,56.1,30.00,NNW,327,0.0,0.0,81,0.00,CLR,,0.00,WeatherDisplay:10.37,2013-10-12 05:21:00,
2013-10-12 01:24:00,61.9,56.3,30.00,NNW,327,0.0,0.0,82,0.00,CLR,,0.00,WeatherDisplay:10.37,2013-10-12 05:24:00,
2013-10-12 01:25:00,61.9,56.3,29.99,NNW,327,0.0,0.0,82,0.00,CLR,,0.00,WeatherDisplay:10.37,2013-10-12 05:25:00,
2013-10-12 01:26:00,61.8,56.2,30.00,NNW,327,0.0,0.0,82,0.00,CLR,,0.00,WeatherDisplay:10.37,2013-10-12 05:26:00,
2013-10-12 01:29:00,61.7,56.1,30.00,NNW,327,0.0,0.0,82,0.00,CLR,,0.00,WeatherDisplay:10.37,2013-10-12 05:29:00,
2013-10-12 01:30:00,61.6,56.4,30.00,NNW,327,0.0,0.0,83,0.00,CLR,,0.00,WeatherDisplay:10.37,2013-10-12 05:30:00,
2013-10-12 01:31:00,61.5,56.3,30.00,NNW,327,0.0,0.0,83,0.00,CLR,,0.00,WeatherDisplay:10.37,2013-10-12 05:31:00,
2013-10-12 01:32:00,61.4,56.5,29.99,NNW,327,0.0,0.0,84,0.00,CLR,,0.00,WeatherDisplay:10.37,2013-10-12 05:32:00,
2013-10-12 01:34:00,61.2,56.3,30.00,NNW,327,0.0,0.0,84,0.00,CLR,,0.00,WeatherDisplay:10.37,2013-10-12 05:34:00,
2013-10-12 01:35:00,61.1,56.2,30.00,NNW,327,0.0,0.0,84,0.00,CLR,,0.00,WeatherDisplay:10.37,2013-10-12 05:35:00,
2013-10-12 01:36:00,61.0,56.5,29.99,NNW,327,0.0,0.0,85,0.00,CLR,,0.00,WeatherDisplay:10.37,2013-10-12 05:36:00,
2013-10-12 01:37:00,61.0,56.5,29.99,NNW,327,0.0,0.0,85,0.00,CLR,,0.00,WeatherDisplay:10.37,2013-10-12 05:37:00,
2013-10-12 01:39:00,61.1,56.6,30.00,NNW,327,0.0,0.0,85,0.00,CLR,,0.00,WeatherDisplay:10.37,2013-10-12 05:39:00,
2013-10-12 01:40:00,61.2,56.7,29.99,NNW,327,0.0,0.0,85,0.00,CLR,,0.00,WeatherDisplay:10.37,2013-10-12 05:40:00,
2013-10-12 01:41:00,61.2,56.7,30.00,NNW,327,0.0,0.0,85,0.00,CLR,,0.00,WeatherDisplay:10.37,2013-10-12 05:41:00,
2013-10-12 01:43:00,61.2,56.3,30.00,NNW,327,0.0,0.0,84,0.00,CLR,,0.00,WeatherDisplay:10.37,2013-10-12 05:43:00,
2013-10-12 01:45:00,61.2,56.3,30.00,NNW,327,0.0,0.0,84,0.00,CLR,,0.00,WeatherDisplay:10.37,2013-10-12 05:45:00,
2013-10-12 01:47:00,61.3,56.1,30.00,NNW,327,0.0,0.0,83,0.00,CLR,,0.00,WeatherDisplay:10.37,2013-10-12 05:47:00,
2013-10-12 01:48:00,61.3,56.4,30.00,NNW,327,0.0,0.0,84,0.00,CLR,,0.00,WeatherDisplay:10.37,2013-10-12 05:48:00,
2013-10-12 01:50:00,61.3,56.1,30.00,NNW,327,0.0,0.0,83,0.00,CLR,,0.00,WeatherDisplay:10.37,2013-10-12 05:50:00,
2013-10-12 01:52:00,61.3,56.1,30.00,NNW,327,0.0,0.0,83,0.00,CLR,,0.00,WeatherDisplay:10.37,2013-10-12 05:52:00,
2013-10-12 01:54:00,61.2,56.0,30.00,NNW,327,0.0,0.0,83,0.00,CLR,,0.00,WeatherDisplay:10.37,2013-10-12 05:54:00,
2013-10-12 01:55:00,61.2,56.0,30.00,NNW,327,0.0,0.0,83,0.00,CLR,,0.00,WeatherDisplay:10.37,2013-10-12 05:55:00,
2013-10-12 01:56:00,61.2,56.0,30.00,NNW,327,0.0,0.0,83,0.00,CLR,,0.00,WeatherDisplay:10.37,2013-10-12 05:56:00,
2013-10-12 01:57:00,61.2,56.0,30.00,NNW,327,0.0,0.0,83,0.00,CLR,,0.00,WeatherDisplay:10.37,2013-10-12 05:57:00,
2013-10-12 01:59:00,61.2,56.0,30.00,NNW,327,0.0,0.0,83,0.00,CLR,,0.00,WeatherDisplay:10.37,2013-10-12 05:59:00,
2013-10-12 02:00:00,61.2,56.0,30.00,NNW,327,0.0,0.0,83,0.00,CLR,,0.00,WeatherDisplay:10.37,2013-10-12 06:00:00,
2013-10-12 02:02:00,61.2,56.0,30.00,NNW,327,0.0,0.0,83,0.00,CLR,,0.00,WeatherDisplay:10.37,2013-10-12 06:02:00,
2013-10-12 02:04:00,61.1,55.6,30.00,NNW,327,0.0,0.0,82,0.00,CLR,,0.00,WeatherDisplay:10.37,2013-10-12 06:04:00,
2013-10-12 02:05:00,61.1,55.6,30.00,NNW,327,0.0,0.0,82,0.00,CLR,,0.00,WeatherDisplay:10.37,2013-10-12 06:05:00,
2013-10-12 02:07:00,60.9,55.4,30.00,NNW,327,0.0,0.0,82,0.00,CLR,,0.00,WeatherDisplay:10.37,2013-10-12 06:07:00,
2013-10-12 02:08:00,60.8,55.3,30.00,NNW,327,0.0,0.0,82,0.00,CLR,,0.00,WeatherDisplay:10.37,2013-10-12 06:08:00,
2013-10-12 02:09:00,60.7,55.5,30.00,NNW,327,0.0,0.0,83,0.00,CLR,,0.00,WeatherDisplay:10.37,2013-10-12 06:09:00,
2013-10-12 02:10:00,60.7,55.5,30.00,NNW,327,0.0,0.0,83,0.00,CLR,,0.00,WeatherDisplay:10.37,2013-10-12 06:10:00,
2013-10-12 02:13:00,60.7,55.8,30.00,NNW,327,0.0,0.0,84,0.00,CLR,,0.00,WeatherDisplay:10.37,2013-10-12 06:13:00,
2013-10-12 02:15:00,60.7,55.8,30.00,NNW,327,0.0,0.0,84,0.00,CLR,,0.00,WeatherDisplay:10.37,2013-10-12 06:15:00,
2013-10-12 02:18:00,60.6,55.7,30.00,NNW,327,0.0,0.0,84,0.00,CLR,,0.00,WeatherDisplay:10.37,2013-10-12 06:18:00,
2013-10-12 02:20:00,60.5,55.6,30.00,NNW,327,0.0,0.0,84,0.00,CLR,,0.00,WeatherDisplay:10.37,2013-10-12 06:20:00,
2013-10-12 02:23:00,60.4,55.9,30.00,NNW,327,0.0,0.0,85,0.00,CLR,,0.00,WeatherDisplay:10.37,2013-10-12 06:23:00,
2013-10-12 02:25:00,60.4,55.5,30.00,NNW,327,0.0,0.0,84,0.00,CLR,,0.00,WeatherDisplay:10.37,2013-10-12 06:25:00,
2013-10-12 02:28:00,60.4,55.9,30.00,NNW,327,0.0,0.0,85,0.00,CLR,,0.00,WeatherDisplay:10.37,2013-10-12 06:28:00,
2013-10-12 02:29:00,60.4,55.5,30.00,NNW,327,0.0,0.0,84,0.00,CLR,,0.00,WeatherDisplay:10.37,2013-10-12 06:29:00,
2013-10-12 02:30:00,60.4,55.5,30.00,NNW,327,0.0,0.0,84,0.00,CLR,,0.00,WeatherDisplay:10.37,2013-10-12 06:30:00,
2013-10-12 02:33:00,60.4,55.2,30.00,NNW,327,0.0,0.0,83,0.00,CLR,,0.00,WeatherDisplay:10.37,2013-10-12 06:33:00,
2013-10-12 02:34:00,60.4,54.9,30.00,NNW,327,0.0,0.0,82,0.00,CLR,,0.00,WeatherDisplay:10.37,2013-10-12 06:34:00,
2013-10-12 02:35:00,60.3,54.8,30.00,NNW,327,0.0,0.0,82,0.00,CLR,,0.00,WeatherDisplay:10.37,2013-10-12 06:35:00,
2013-10-12 02:36:00,60.3,54.8,30.00,NNW,327,0.0,0.0,82,0.00,CLR,,0.00,WeatherDisplay:10.37,2013-10-12 06:36:00,
2013-10-12 02:38:00,60.3,55.1,30.00,NNW,327,0.0,0.0,83,0.00,CLR,,0.00,WeatherDisplay:10.37,2013-10-12 06:38:00,
2013-10-12 02:39:00,60.2,54.7,30.00,NNW,327,0.0,0.0,82,0.00,CLR,,0.00,WeatherDisplay:10.37,2013-10-12 06:39:00,
2013-10-12 02:40:00,60.2,54.7,30.00,NNW,327,0.0,0.0,82,0.00,CLR,,0.00,WeatherDisplay:10.37,2013-10-12 06:40:00,
2013-10-12 02:41:00,60.2,55.0,30.00,NNW,327,0.0,0.0,83,0.00,CLR,,0.00,WeatherDisplay:10.37,2013-10-12 06:41:00,
2013-10-12 02:43:00,60.1,54.9,30.00,NNW,327,0.0,0.0,83,0.00,CLR,,0.00,WeatherDisplay:10.37,2013-10-12 06:43:00,
2013-10-12 02:44:00,60.1,54.6,30.00,NNW,327,0.0,0.0,82,0.00,CLR,,0.00,WeatherDisplay:10.37,2013-10-12 06:44:00,
2013-10-12 02:45:00,60.0,54.5,30.00,NNW,327,0.0,0.0,82,0.00,CLR,,0.00,WeatherDisplay:10.37,2013-10-12 06:45:00,
2013-10-12 02:46:00,60.0,54.8,30.00,NNW,327,0.0,0.0,83,0.00,CLR,,0.00,WeatherDisplay:10.37,2013-10-12 06:46:00,
2013-10-12 02:48:00,59.9,54.7,30.00,NNW,327,0.0,0.0,83,0.00,CLR,,0.00,WeatherDisplay:10.37,2013-10-12 06:48:00,
2013-10-12 02:49:00,59.9,54.7,30.00,NNW,327,0.0,0.0,83,0.00,CLR,,0.00,WeatherDisplay:10.37,2013-10-12 06:49:00,
2013-10-12 02:50:00,59.9,54.7,30.00,NNW,327,0.0,0.0,83,0.00,CLR,,0.00,WeatherDisplay:10.37,2013-10-12 06:50:00,
2013-10-12 02:51:00,59.8,54.6,30.00,NNW,327,0.0,0.0,83,0.00,CLR,,0.00,WeatherDisplay:10.37,2013-10-12 06:51:00,
2013-10-12 02:54:00,59.8,55.0,30.00,NNW,327,0.0,0.0,84,0.00,CLR,,0.00,WeatherDisplay:10.37,2013-10-12 06:54:00,
2013-10-12 02:55:00,59.8,55.0,30.00,NNW,327,0.0,0.0,84,0.00,CLR,,0.00,WeatherDisplay:10.37,2013-10-12 06:55:00,
2013-10-12 02:56:00,59.8,55.0,30.00,NNW,327,0.0,0.0,84,0.00,CLR,,0.00,WeatherDisplay:10.37,2013-10-12 06:56:00,
2013-10-12 02:59:00,59.7,54.9,30.00,NNW,327,0.0,0.0,84,0.00,CLR,,0.00,WeatherDisplay:10.37,2013-10-12 06:59:00,
2013-10-12 03:00:00,59.7,54.9,30.00,NNW,327,0.0,0.0,84,0.00,CLR,,0.00,WeatherDisplay:10.37,2013-10-12 07:00:00,
2013-10-12 03:01:00,59.7,54.9,30.00,NNW,327,0.0,0.0,84,0.00,CLR,,0.00,WeatherDisplay:10.37,2013-10-12 07:01:00,
2013-10-12 03:02:00,59.7,54.9,30.00,NNW,327,0.0,0.0,84,0.00,CLR,,0.00,WeatherDisplay:10.37,2013-10-12 07:02:00,
2013-10-12 03:04:00,59.6,54.8,30.00,NNW,327,0.0,0.0,84,0.00,CLR,,0.00,WeatherDisplay:10.37,2013-10-12 07:04:00,
2013-10-12 03:06:00,59.6,55.1,30.00,NNW,327,0.0,0.0,85,0.00,CLR,,0.00,WeatherDisplay:10.37,2013-10-12 07:06:00,
2013-10-12 03:07:00,59.6,55.1,30.00,NNW,327,0.0,0.0,85,0.00,CLR,,0.00,WeatherDisplay:10.37,2013-10-12 07:07:00,
2013-10-12 03:09:00,59.5,54.7,30.00,NNW,327,0.0,0.0,84,0.00,CLR,,0.00,WeatherDisplay:10.37,2013-10-12 07:09:00,
2013-10-12 03:11:00,59.5,54.7,30.00,NNW,327,0.0,0.0,84,0.00,CLR,,0.00,WeatherDisplay:10.37,2013-10-12 07:11:00,
2013-10-12 03:12:00,59.5,55.0,30.00,NNW,327,0.0,0.0,85,0.00,CLR,,0.00,WeatherDisplay:10.37,2013-10-12 07:12:00,
2013-10-12 03:14:00,59.3,54.8,30.00,NNW,327,0.0,0.0,85,0.00,CLR,,0.00,WeatherDisplay:10.37,2013-10-12 07:14:00,
2013-10-12 03:16:00,59.3,54.8,30.00,NNW,327,0.0,0.0,85,0.00,CLR,,0.00,WeatherDisplay:10.37,2013-10-12 07:16:00,
2013-10-12 03:17:00,59.3,54.8,30.00,NNW,327,0.0,0.0,85,0.00,CLR,,0.00,WeatherDisplay:10.37,2013-10-12 07:17:00,
2013-10-12 03:19:00,59.1,54.9,30.00,NNW,327,0.0,0.0,86,0.00,CLR,,0.00,WeatherDisplay:10.37,2013-10-12 07:19:00,
2013-10-12 03:21:00,59.0,54.8,30.00,NNW,327,0.0,0.0,86,0.00,CLR,,0.00,WeatherDisplay:10.37,2013-10-12 07:21:00,
2013-10-12 03:22:00,59.0,55.1,30.00,NNW,327,0.0,0.0,87,0.00,CLR,,0.00,WeatherDisplay:10.37,2013-10-12 07:22:00,
2013-10-12 03:23:00,59.0,55.1,30.00,NNW,327,0.0,0.0,87,0.00,CLR,,0.00,WeatherDisplay:10.37,2013-10-12 07:23:00,
2013-10-12 03:24:00,59.1,55.2,30.00,NNW,327,0.0,0.0,87,0.00,CLR,,0.00,WeatherDisplay:10.37,2013-10-12 07:24:00,
2013-10-12 03:26:00,59.1,54.9,30.00,NNW,327,0.0,0.0,86,0.00,CLR,,0.00,WeatherDisplay:10.37,2013-10-12 07:26:00,
2013-10-12 03:27:00,59.1,54.9,30.00,NNW,327,0.0,0.0,86,0.00,CLR,,0.00,WeatherDisplay:10.37,2013-10-12 07:27:00,
2013-10-12 03:28:00,59.1,54.9,30.00,NNW,327,0.0,0.0,86,0.00,CLR,,0.00,WeatherDisplay:10.37,2013-10-12 07:28:00,
2013-10-12 03:30:00,59.1,54.6,30.00,NNW,327,0.0,0.0,85,0.00,CLR,,0.00,WeatherDisplay:10.37,2013-10-12 07:30:00,
2013-10-12 03:31:00,59.1,54.6,30.00,NNW,327,0.0,0.0,85,0.00,CLR,,0.00,WeatherDisplay:10.37,2013-10-12 07:31:00,
2013-10-12 03:32:00,59.1,54.6,30.00,NNW,327,0.0,0.0,85,0.00,CLR,,0.00,WeatherDisplay:10.37,2013-10-12 07:32:00,
2013-10-12 03:33:00,59.1,54.3,30.00,NNW,327,0.0,0.0,84,0.00,CLR,,0.00,WeatherDisplay:10.37,2013-10-12 07:33:00,
2013-10-12 03:34:00,59.1,54.3,30.00,NNW,327,0.0,0.0,84,0.00,CLR,,0.00,WeatherDisplay:10.37,2013-10-12 07:34:00,
2013-10-12 03:35:00,59.1,54.3,30.00,NNW,327,0.0,0.0,84,0.00,CLR,,0.00,WeatherDisplay:10.37,2013-10-12 07:35:00,
2013-10-12 03:36:00,59.0,54.2,30.00,NNW,327,0.0,0.0,84,0.00,CLR,,0.00,WeatherDisplay:10.37,2013-10-12 07:36:00,
2013-10-12 03:37:00,59.0,54.2,30.00,NNW,327,0.0,0.0,84,0.00,CLR,,0.00,WeatherDisplay:10.37,2013-10-12 07:37:00,
2013-10-12 03:38:00,59.0,54.2,30.00,NNW,327,0.0,0.0,84,0.00,CLR,,0.00,WeatherDisplay:10.37,2013-10-12 07:38:00,
2013-10-12 03:39:00,58.9,54.1,30.00,NNW,327,0.0,0.0,84,0.00,CLR,,0.00,WeatherDisplay:10.37,2013-10-12 07:39:00,
2013-10-12 03:41:00,58.9,54.1,30.00,NNW,327,0.0,0.0,84,0.00,CLR,,0.00,WeatherDisplay:10.37,2013-10-12 07:41:00,
2013-10-12 03:42:00,58.8,54.0,30.00,NNW,327,0.0,0.0,84,0.00,CLR,,0.00,WeatherDisplay:10.37,2013-10-12 07:42:00,
2013-10-12 03:43:00,58.8,54.0,30.00,NNW,327,0.0,0.0,84,0.00,CLR,,0.00,WeatherDisplay:10.37,2013-10-12 07:43:00,
2013-10-12 03:45:00,58.7,53.9,30.00,NNW,327,0.0,0.0,84,0.00,CLR,,0.00,WeatherDisplay:10.37,2013-10-12 07:45:00,
2013-10-12 03:46:00,58.6,53.8,30.00,NNW,327,0.0,0.0,84,0.00,CLR,,0.00,WeatherDisplay:10.37,2013-10-12 07:46:00,
2013-10-12 03:47:00,58.6,53.8,30.00,NNW,327,0.0,0.0,84,0.00,CLR,,0.00,WeatherDisplay:10.37,2013-10-12 07:47:00,
2013-10-12 03:49:00,58.5,53.7,30.00,NNW,327,0.0,0.0,84,0.00,CLR,,0.00,WeatherDisplay:10.37,2013-10-12 07:49:00,
2013-10-12 03:51:00,58.5,53.7,30.00,NNW,327,0.0,0.0,84,0.00,CLR,,0.00,WeatherDisplay:10.37,2013-10-12 07:51:00,
2013-10-12 03:52:00,58.4,53.6,30.00,NNW,327,0.0,0.0,84,0.00,CLR,,0.00,WeatherDisplay:10.37,2013-10-12 07:52:00,
2013-10-12 03:53:00,58.4,53.6,30.00,NNW,327,0.0,0.0,84,0.00,CLR,,0.00,WeatherDisplay:10.37,2013-10-12 07:53:00,
2013-10-12 03:54:00,58.4,53.6,30.00,NNW,327,0.0,0.0,84,0.00,CLR,,0.00,WeatherDisplay:10.37,2013-10-12 07:54:00,
2013-10-12 03:56:00,58.4,53.6,30.00,NNW,327,0.0,0.0,84,0.00,CLR,,0.00,WeatherDisplay:10.37,2013-10-12 07:56:00,
2013-10-12 03:57:00,58.3,53.5,30.00,NNW,327,0.0,0.0,84,0.00,CLR,,0.00,WeatherDisplay:10.37,2013-10-12 07:57:00,
2013-10-12 03:58:00,58.3,53.5,30.00,NNW,327,0.0,0.0,84,0.00,CLR,,0.00,WeatherDisplay:10.37,2013-10-12 07:58:00,
2013-10-12 03:59:00,58.3,53.5,30.00,NNW,327,0.0,0.0,84,0.00,CLR,,0.00,WeatherDisplay:10.37,2013-10-12 07:59:00,
2013-10-12 04:01:00,58.1,53.6,30.00,NNW,328,0.0,0.0,85,0.00,CLR,,0.00,WeatherDisplay:10.37,2013-10-12 08:01:00,
2013-10-12 04:02:00,58.1,53.6,30.00,NNW,327,0.0,0.0,85,0.00,CLR,,0.00,WeatherDisplay:10.37,2013-10-12 08:02:00,
2013-10-12 04:03:00,58.1,53.6,30.00,NNW,327,0.0,0.0,85,0.00,CLR,,0.00,WeatherDisplay:10.37,2013-10-12 08:03:00,
2013-10-12 04:04:00,58.1,53.6,30.00,NNW,327,0.0,0.0,85,0.00,CLR,,0.00,WeatherDisplay:10.37,2013-10-12 08:04:00,
2013-10-12 04:06:00,58.2,53.7,30.00,NNW,327,0.0,0.0,85,0.00,CLR,,0.00,WeatherDisplay:10.37,2013-10-12 08:06:00,
2013-10-12 04:07:00,58.1,53.6,30.00,NNW,327,0.0,0.0,85,0.00,CLR,,0.00,WeatherDisplay:10.37,2013-10-12 08:07:00,
2013-10-12 04:08:00,58.2,53.7,30.00,NNW,327,0.0,0.0,85,0.00,CLR,,0.00,WeatherDisplay:10.37,2013-10-12 08:08:00,
2013-10-12 04:09:00,58.1,53.3,30.00,NNW,327,0.0,0.0,84,0.00,CLR,,0.00,WeatherDisplay:10.37,2013-10-12 08:09:00,
2013-10-12 04:10:00,58.1,53.6,30.00,NNW,328,0.0,0.0,85,0.00,CLR,,0.00,WeatherDisplay:10.37,2013-10-12 08:10:00,
2013-10-12 04:11:00,58.1,53.3,30.00,NNW,327,0.0,0.0,84,0.00,CLR,,0.00,WeatherDisplay:10.37,2013-10-12 08:11:00,
2013-10-12 04:12:00,58.0,53.2,30.00,NNW,327,0.0,0.0,84,0.00,CLR,,0.00,WeatherDisplay:10.37,2013-10-12 08:12:00,
2013-10-12 04:13:00,58.0,53.2,30.00,NNW,327,0.0,0.0,84,0.00,CLR,,0.00,WeatherDisplay:10.37,2013-10-12 08:13:00,
2013-10-12 04:14:00,58.0,53.2,30.00,NNW,327,0.0,0.0,84,0.00,CLR,,0.00,WeatherDisplay:10.37,2013-10-12 08:14:00,
2013-10-12 04:15:00,58.0,53.2,30.00,NNW,327,0.0,0.0,84,0.00,CLR,,0.00,WeatherDisplay:10.37,2013-10-12 08:15:00,
2013-10-12 04:17:00,58.0,52.9,30.00,NNW,327,0.0,0.0,83,0.00,CLR,,0.00,WeatherDisplay:10.37,2013-10-12 08:17:00,
2013-10-12 04:18:00,58.0,53.2,30.00,NNW,327,0.0,0.0,84,0.00,CLR,,0.00,WeatherDisplay:10.37,2013-10-12 08:18:00,
2013-10-12 04:20:00,57.9,53.1,30.00,NNW,327,0.0,0.0,84,0.00,CLR,,0.00,WeatherDisplay:10.37,2013-10-12 08:20:00,
2013-10-12 04:22:00,58.0,53.2,30.00,NNW,327,0.0,0.0,84,0.00,CLR,,0.00,WeatherDisplay:10.37,2013-10-12 08:22:00,
2013-10-12 04:23:00,57.9,53.1,30.00,NNW,327,0.0,0.0,84,0.00,CLR,,0.00,WeatherDisplay:10.37,2013-10-12 08:23:00,
2013-10-12 04:24:00,57.9,53.1,30.00,NNW,327,0.0,0.0,84,0.00,CLR,,0.00,WeatherDisplay:10.37,2013-10-12 08:24:00,
2013-10-12 04:25:00,57.9,53.1,30.00,NNW,327,0.0,0.0,84,0.00,CLR,,0.00,WeatherDisplay:10.37,2013-10-12 08:25:00,
2013-10-12 04:26:00,57.9,53.1,30.00,NNW,327,0.0,0.0,84,0.00,CLR,,0.00,WeatherDisplay:10.37,2013-10-12 08:26:00,
2013-10-12 04:28:00,57.8,53.3,30.00,NNW,327,0.0,1.0,85,0.00,CLR,,0.00,WeatherDisplay:10.37,2013-10-12 08:28:00,
2013-10-12 04:29:00,57.8,53.0,30.00,NNW,327,0.5,0.0,84,0.00,CLR,,0.00,WeatherDisplay:10.37,2013-10-12 08:29:00,
2013-10-12 04:30:00,57.8,53.3,30.00,NNW,327,0.0,0.0,85,0.00,CLR,,0.00,WeatherDisplay:10.37,2013-10-12 08:30:00,
2013-10-12 04:32:00,57.8,53.3,30.00,NNW,327,0.0,0.0,85,0.00,CLR,,0.00,WeatherDisplay:10.37,2013-10-12 08:32:00,
2013-10-12 04:33:00,57.8,53.3,30.00,NNW,327,0.0,0.0,85,0.00,CLR,,0.00,WeatherDisplay:10.37,2013-10-12 08:33:00,
2013-10-12 04:34:00,57.8,53.6,30.00,NNW,327,0.0,0.0,86,0.00,CLR,,0.00,WeatherDisplay:10.37,2013-10-12 08:34:00,
2013-10-12 04:36:00,57.9,53.7,30.01,NNW,327,0.0,0.0,86,0.00,CLR,,0.00,WeatherDisplay:10.37,2013-10-12 08:36:00,
2013-10-12 04:37:00,57.9,53.7,30.01,NNW,327,0.0,0.0,86,0.00,CLR,,0.00,WeatherDisplay:10.37,2013-10-12 08:37:00,
2013-10-12 04:38:00,57.9,53.7,30.00,NNW,327,0.0,0.0,86,0.00,CLR,,0.00,WeatherDisplay:10.37,2013-10-12 08:38:00,
2013-10-12 04:39:00,57.9,53.7,30.00,NNW,327,0.0,0.0,86,0.00,CLR,,0.00,WeatherDisplay:10.37,2013-10-12 08:39:00,
2013-10-12 04:40:00,57.9,53.7,30.01,NNW,327,0.0,0.0,86,0.00,CLR,,0.00,WeatherDisplay:10.37,2013-10-12 08:40:00,
2013-10-12 04:41:00,57.9,53.7,30.01,NNW,327,0.0,0.0,86,0.00,CLR,,0.00,WeatherDisplay:10.37,2013-10-12 08:41:00,
2013-10-12 04:42:00,57.9,53.7,30.01,NNW,327,0.1,1.1,86,0.00,CLR,,0.00,WeatherDisplay:10.37,2013-10-12 08:42:00,
2013-10-12 04:43:00,57.9,53.7,30.01,NNW,327,0.5,0.0,86,0.00,CLR,,0.00,WeatherDisplay:10.37,2013-10-12 08:43:00,
2013-10-12 04:44:00,57.9,53.7,30.01,NNW,327,0.5,2.3,86,0.00,CLR,,0.00,WeatherDisplay:10.37,2013-10-12 08:44:00,
2013-10-12 04:45:00,57.9,53.7,30.01,NNW,327,0.1,1.1,86,0.00,CLR,,0.00,WeatherDisplay:10.37,2013-10-12 08:45:00,
2013-10-12 04:47:00,57.9,54.1,30.01,NNW,327,0.0,0.0,87,0.00,CLR,,0.00,WeatherDisplay:10.37,2013-10-12 08:47:00,
2013-10-12 04:48:00,57.9,54.1,30.01,NNW,327,0.0,0.0,87,0.00,CLR,,0.00,WeatherDisplay:10.37,2013-10-12 08:48:00,
2013-10-12 04:49:00,57.9,54.1,30.01,NNW,327,0.0,0.0,87,0.00,CLR,,0.00,WeatherDisplay:10.37,2013-10-12 08:49:00,
2013-10-12 04:50:00,57.9,54.1,30.01,NNW,327,0.0,0.0,87,0.00,CLR,,0.00,WeatherDisplay:10.37,2013-10-12 08:50:00,
2013-10-12 04:52:00,57.8,54.0,30.01,NNW,327,0.0,0.0,87,0.00,CLR,,0.00,WeatherDisplay:10.37,2013-10-12 08:52:00,
2013-10-12 04:54:00,57.7,53.5,30.01,NNW,327,0.0,0.0,86,0.00,CLR,,0.00,WeatherDisplay:10.37,2013-10-12 08:54:00,
2013-10-12 04:55:00,57.7,53.5,30.01,NNW,327,0.0,0.0,86,0.00,CLR,,0.00,WeatherDisplay:10.37,2013-10-12 08:55:00,
2013-10-12 04:57:00,57.7,53.5,30.01,NNW,327,0.0,0.0,86,0.00,CLR,,0.00,WeatherDisplay:10.37,2013-10-12 08:57:00,
2013-10-12 04:58:00,57.7,53.5,30.01,NNW,327,0.0,0.0,86,0.00,CLR,,0.00,WeatherDisplay:10.37,2013-10-12 08:58:00,
2013-10-12 04:59:00,57.7,53.5,30.01,NNW,327,0.0,0.0,86,0.00,CLR,,0.00,WeatherDisplay:10.37,2013-10-12 08:59:00,
2013-10-12 05:00:00,57.6,53.4,30.01,NNW,327,0.0,0.0,86,0.00,CLR,,0.00,WeatherDisplay:10.37,2013-10-12 09:00:00,
2013-10-12 05:02:00,57.6,53.8,30.01,NNW,327,0.0,0.0,87,0.00,CLR,,0.00,WeatherDisplay:10.37,2013-10-12 09:02:00,
2013-10-12 05:03:00,57.6,53.4,30.01,NNW,327,0.0,0.0,86,0.00,CLR,,0.00,WeatherDisplay:10.37,2013-10-12 09:03:00,
2013-10-12 05:04:00,57.6,53.4,30.01,NNW,327,0.0,0.0,86,0.00,CLR,,0.00,WeatherDisplay:10.37,2013-10-12 09:04:00,
2013-10-12 05:05:00,57.6,53.4,30.01,NNW,327,0.0,0.0,86,0.00,CLR,,0.00,WeatherDisplay:10.37,2013-10-12 09:05:00,
2013-10-12 05:06:00,57.6,53.8,30.01,NNW,327,0.0,0.0,87,0.00,CLR,,0.00,WeatherDisplay:10.37,2013-10-12 09:06:00,
2013-10-12 05:08:00,57.5,53.3,30.01,NNW,327,0.0,0.0,86,0.00,CLR,,0.00,WeatherDisplay:10.37,2013-10-12 09:08:00,
2013-10-12 05:09:00,57.5,53.3,30.01,NNW,327,0.0,0.0,86,0.00,CLR,,0.00,WeatherDisplay:10.37,2013-10-12 09:09:00,
2013-10-12 05:11:00,57.5,53.0,30.01,NNW,327,0.0,0.0,85,0.00,CLR,,0.00,WeatherDisplay:10.37,2013-10-12 09:11:00,
2013-10-12 05:14:00,57.4,52.9,30.01,NNW,327,0.0,0.0,85,0.00,CLR,,0.00,WeatherDisplay:10.37,2013-10-12 09:14:00,
2013-10-12 05:16:00,57.3,52.8,30.01,NNW,327,0.0,0.0,85,0.00,CLR,,0.00,WeatherDisplay:10.37,2013-10-12 09:16:00,
2013-10-12 05:17:00,57.3,52.8,30.01,NNW,327,0.0,0.0,85,0.00,CLR,,0.00,WeatherDisplay:10.37,2013-10-12 09:17:00,
2013-10-12 05:19:00,57.2,53.0,30.01,NNW,327,0.0,0.0,86,0.00,CLR,,0.00,WeatherDisplay:10.37,2013-10-12 09:19:00,
2013-10-12 05:20:00,57.2,53.0,30.01,NNW,327,0.0,0.0,86,0.00,CLR,,0.00,WeatherDisplay:10.37,2013-10-12 09:20:00,
2013-10-12 05:21:00,57.2,53.0,30.02,NNW,327,0.0,0.0,86,0.00,CLR,,0.00,WeatherDisplay:10.37,2013-10-12 09:21:00,
2013-10-12 05:22:00,57.1,53.0,30.01,NNW,327,0.0,0.0,86,0.00,CLR,,0.00,WeatherDisplay:10.37,2013-10-12 09:22:00,
2013-10-12 05:24:00,57.1,53.0,30.01,NNW,327,0.0,0.0,86,0.00,CLR,,0.00,WeatherDisplay:10.37,2013-10-12 09:24:00,
2013-10-12 05:25:00,57.1,53.0,30.01,NNW,327,0.0,0.0,86,0.00,CLR,,0.00,WeatherDisplay:10.37,2013-10-12 09:25:00,
2013-10-12 05:27:00,57.0,52.9,30.01,NNW,327,0.0,0.0,86,0.00,CLR,,0.00,WeatherDisplay:10.37,2013-10-12 09:27:00,
2013-10-12 05:28:00,57.0,52.5,30.01,NNW,327,0.0,0.0,85,0.00,CLR,,0.00,WeatherDisplay:10.37,2013-10-12 09:28:00,
2013-10-12 05:30:00,57.0,52.9,30.01,NNW,327,0.0,0.0,86,0.00,CLR,,0.00,WeatherDisplay:10.37,2013-10-12 09:30:00,
2013-10-12 05:31:00,56.9,52.4,30.02,NNW,327,0.0,0.0,85,0.00,CLR,,0.00,WeatherDisplay:10.37,2013-10-12 09:31:00,
2013-10-12 05:32:00,56.9,52.4,30.01,NNW,327,0.0,0.0,85,0.00,CLR,,0.00,WeatherDisplay:10.37,2013-10-12 09:32:00,
2013-10-12 05:33:00,56.9,52.4,30.02,NNW,327,0.0,0.0,85,0.00,CLR,,0.00,WeatherDisplay:10.37,2013-10-12 09:33:00,
2013-10-12 05:35:00,56.8,52.3,30.02,NNW,327,0.0,0.0,85,0.00,CLR,,0.00,WeatherDisplay:10.37,2013-10-12 09:35:00,
2013-10-12 05:36:00,56.8,52.3,30.02,NNW,327,0.0,0.0,85,0.00,CLR,,0.00,WeatherDisplay:10.37,2013-10-12 09:36:00,
2013-10-12 05:37:00,56.8,52.0,30.02,NNW,327,0.0,0.0,84,0.00,CLR,,0.00,WeatherDisplay:10.37,2013-10-12 09:37:00,
2013-10-12 05:38:00,56.7,51.9,30.02,NNW,327,0.0,0.0,84,0.00,CLR,,0.00,WeatherDisplay:10.37,2013-10-12 09:38:00,
2013-10-12 05:40:00,56.7,52.2,30.02,NNW,327,0.0,0.0,85,0.00,CLR,,0.00,WeatherDisplay:10.37,2013-10-12 09:40:00,
2013-10-12 05:41:00,56.7,51.9,30.02,NNW,327,0.0,0.0,84,0.00,CLR,,0.00,WeatherDisplay:10.37,2013-10-12 09:41:00,
2013-10-12 05:42:00,56.7,51.9,30.02,NNW,327,0.0,0.0,84,0.00,CLR,,0.00,WeatherDisplay:10.37,2013-10-12 09:42:00,
2013-10-12 05:44:00,56.6,52.1,30.01,NNW,327,0.0,0.0,85,0.00,CLR,,0.00,WeatherDisplay:10.37,2013-10-12 09:44:00,
2013-10-12 05:45:00,56.6,52.1,30.02,NNW,327,0.0,0.0,85,0.00,CLR,,0.00,WeatherDisplay:10.37,2013-10-12 09:45:00,
2013-10-12 05:46:00,56.5,52.0,30.02,NNW,327,0.0,0.0,85,0.00,CLR,,0.00,WeatherDisplay:10.37,2013-10-12 09:46:00,
2013-10-12 05:47:00,56.5,52.0,30.02,NNW,327,0.0,0.0,85,0.00,CLR,,0.00,WeatherDisplay:10.37,2013-10-12 09:47:00,
2013-10-12 05:50:00,56.4,52.3,30.01,NNW,327,0.0,0.0,86,0.00,CLR,,0.00,WeatherDisplay:10.37,2013-10-12 09:50:00,
2013-10-12 05:51:00,56.3,52.2,30.02,NNW,327,0.0,0.0,86,0.00,CLR,,0.00,WeatherDisplay:10.37,2013-10-12 09:51:00,
2013-10-12 05:52:00,56.3,52.2,30.02,NNW,327,0.0,0.0,86,0.00,CLR,,0.00,WeatherDisplay:10.37,2013-10-12 09:52:00,
2013-10-12 05:53:00,56.3,52.2,30.02,NNW,327,0.0,0.0,86,0.00,CLR,,0.00,WeatherDisplay:10.37,2013-10-12 09:53:00,
2013-10-12 05:55:00,56.2,52.1,30.02,NNW,327,0.0,0.0,86,0.00,CLR,,0.00,WeatherDisplay:10.37,2013-10-12 09:55:00,
2013-10-12 05:56:00,56.2,52.4,30.02,NNW,327,0.0,0.0,87,0.00,CLR,,0.00,WeatherDisplay:10.37,2013-10-12 09:56:00,
2013-10-12 05:57:00,56.2,52.1,30.02,NNW,327,0.0,0.0,86,0.00,CLR,,0.00,WeatherDisplay:10.37,2013-10-12 09:57:00,
2013-10-12 05:58:00,56.2,52.1,30.02,NNW,327,0.0,0.0,86,0.00,CLR,,0.00,WeatherDisplay:10.37,2013-10-12 09:58:00,
2013-10-12 06:00:00,56.1,52.0,30.02,NNW,327,0.0,0.0,86,0.00,CLR,,0.00,WeatherDisplay:10.37,2013-10-12 10:00:00,
2013-10-12 06:01:00,56.1,51.7,30.02,NNW,327,0.0,0.0,85,0.00,CLR,,0.00,WeatherDisplay:10.37,2013-10-12 10:01:00,
2013-10-12 06:02:00,56.1,51.7,30.02,NNW,327,0.0,0.0,85,0.00,CLR,,0.00,WeatherDisplay:10.37,2013-10-12 10:02:00,
2013-10-12 06:03:00,56.0,51.6,30.02,NNW,327,0.0,0.0,85,0.00,CLR,,0.00,WeatherDisplay:10.37,2013-10-12 10:03:00,
2013-10-12 06:04:00,56.0,51.6,30.02,NNW,327,0.0,0.0,85,0.00,CLR,,0.00,WeatherDisplay:10.37,2013-10-12 10:04:00,
2013-10-12 06:05:00,56.0,51.6,30.01,NNW,327,0.0,0.0,85,0.00,CLR,,0.00,WeatherDisplay:10.37,2013-10-12 10:05:00,
2013-10-12 06:06:00,56.0,51.6,30.02,NNW,327,0.0,0.0,85,0.00,CLR,,0.00,WeatherDisplay:10.37,2013-10-12 10:06:00,
2013-10-12 06:07:00,56.0,51.6,30.02,NNW,327,0.0,0.0,85,0.00,CLR,,0.00,WeatherDisplay:10.37,2013-10-12 10:07:00,
2013-10-12 06:08:00,56.0,51.6,30.02,NNW,327,0.0,0.0,85,0.00,CLR,,0.00,WeatherDisplay:10.37,2013-10-12 10:08:00,
2013-10-12 06:09:00,55.9,51.5,30.02,NNW,327,0.0,0.0,85,0.00,CLR,,0.00,WeatherDisplay:10.37,2013-10-12 10:09:00,
2013-10-12 06:10:00,55.9,51.5,30.02,NNW,327,0.0,0.0,85,0.00,CLR,,0.00,WeatherDisplay:10.37,2013-10-12 10:10:00,
2013-10-12 06:11:00,55.9,51.8,30.02,NNW,327,0.0,0.0,86,0.00,CLR,,0.00,WeatherDisplay:10.37,2013-10-12 10:11:00,
2013-10-12 06:13:00,55.8,51.7,30.02,NNW,327,0.0,0.0,86,0.00,CLR,,0.00,WeatherDisplay:10.37,2013-10-12 10:13:00,
2013-10-12 06:14:00,55.8,52.0,30.02,NNW,327,0.0,0.0,87,0.00,CLR,,0.00,WeatherDisplay:10.37,2013-10-12 10:14:00,
2013-10-12 06:15:00,55.8,52.0,30.02,NNW,327,0.0,0.0,87,0.00,CLR,,0.00,WeatherDisplay:10.37,2013-10-12 10:15:00,
2013-10-12 06:16:00,55.8,52.0,30.02,NNW,327,0.0,0.0,87,0.00,CLR,,0.00,WeatherDisplay:10.37,2013-10-12 10:16:00,
2013-10-12 06:18:00,55.7,52.2,30.02,NNW,327,0.0,0.0,88,0.00,CLR,,0.00,WeatherDisplay:10.37,2013-10-12 10:18:00,
2013-10-12 06:19:00,55.6,52.1,30.02,NNW,327,0.0,0.0,88,0.00,CLR,,0.00,WeatherDisplay:10.37,2013-10-12 10:19:00,
2013-10-12 06:21:00,55.6,52.1,30.02,NNW,327,0.0,0.0,88,0.00,CLR,,0.00,WeatherDisplay:10.37,2013-10-12 10:21:00,
2013-10-12 06:22:00,55.6,52.1,30.02,NNW,327,0.0,0.0,88,0.00,CLR,,0.00,WeatherDisplay:10.37,2013-10-12 10:22:00,
2013-10-12 06:23:00,55.6,52.1,30.02,NNW,327,0.0,0.0,88,0.00,CLR,,0.00,WeatherDisplay:10.37,2013-10-12 10:23:00,
2013-10-12 06:24:00,55.6,52.1,30.02,NNW,327,0.0,0.0,88,0.00,CLR,,0.00,WeatherDisplay:10.37,2013-10-12 10:24:00,
2013-10-12 06:26:00,55.6,52.1,30.02,NW,318,0.0,0.0,88,0.00,CLR,,0.00,WeatherDisplay:10.37,2013-10-12 10:26:00,
2013-10-12 06:27:00,55.5,52.0,30.02,WNW,303,0.3,3.0,88,0.00,CLR,,0.00,WeatherDisplay:10.37,2013-10-12 10:27:00,
2013-10-12 06:28:00,55.5,52.0,30.02,WNW,289,0.4,3.5,88,0.00,CLR,,0.00,WeatherDisplay:10.37,2013-10-12 10:28:00,
2013-10-12 06:29:00,55.5,51.7,30.02,West,271,0.0,2.3,87,0.00,CLR,,0.00,WeatherDisplay:10.37,2013-10-12 10:29:00,
2013-10-12 06:30:00,55.5,52.0,30.03,West,271,0.1,0.0,88,0.00,CLR,,0.00,WeatherDisplay:10.37,2013-10-12 10:30:00,
2013-10-12 06:32:00,55.5,52.0,30.02,West,271,0.0,1.1,88,0.00,CLR,,0.00,WeatherDisplay:10.37,2013-10-12 10:32:00,
2013-10-12 06:33:00,55.5,52.0,30.02,West,270,0.0,0.0,88,0.00,CLR,,0.00,WeatherDisplay:10.37,2013-10-12 10:33:00,
2013-10-12 06:34:00,55.5,52.0,30.03,West,271,0.0,0.0,88,0.00,CLR,,0.00,WeatherDisplay:10.37,2013-10-12 10:34:00,
2013-10-12 06:36:00,55.6,52.1,30.02,West,271,0.0,0.0,88,0.00,CLR,,0.00,WeatherDisplay:10.37,2013-10-12 10:36:00,
2013-10-12 06:37:00,55.6,52.1,30.03,West,271,0.0,0.0,88,0.00,CLR,,0.00,WeatherDisplay:10.37,2013-10-12 10:37:00,
2013-10-12 06:39:00,55.6,52.4,30.02,West,270,0.0,0.0,89,0.00,CLR,,0.00,WeatherDisplay:10.37,2013-10-12 10:39:00,
2013-10-12 06:42:00,55.6,52.1,30.03,West,270,0.0,0.0,88,0.00,CLR,,0.00,WeatherDisplay:10.37,2013-10-12 10:42:00,
2013-10-12 06:43:00,55.6,51.8,30.02,West,271,0.0,0.0,87,0.00,CLR,,0.00,WeatherDisplay:10.37,2013-10-12 10:43:00,
2013-10-12 06:44:00,55.6,51.8,30.03,West,270,0.0,0.0,87,0.00,CLR,,0.00,WeatherDisplay:10.37,2013-10-12 10:44:00,
2013-10-12 06:47:00,55.5,51.7,30.03,West,270,0.0,0.0,87,0.00,CLR,,0.00,WeatherDisplay:10.37,2013-10-12 10:47:00,
2013-10-12 06:48:00,55.6,51.8,30.03,West,271,0.0,0.0,87,0.00,CLR,,0.00,WeatherDisplay:10.37,2013-10-12 10:48:00,
2013-10-12 06:49:00,55.5,51.7,30.03,West,271,0.0,0.0,87,0.00,CLR,,0.00,WeatherDisplay:10.37,2013-10-12 10:49:00,
2013-10-12 06:52:00,55.5,51.7,30.03,West,270,0.0,0.0,87,0.00,CLR,,0.00,WeatherDisplay:10.37,2013-10-12 10:52:00,
2013-10-12 06:53:00,55.5,51.7,30.03,West,270,0.0,0.0,87,0.00,CLR,,0.00,WeatherDisplay:10.37,2013-10-12 10:53:00,
2013-10-12 06:54:00,55.5,51.7,30.03,West,270,0.0,0.0,87,0.00,CLR,,0.00,WeatherDisplay:10.37,2013-10-12 10:54:00,
2013-10-12 06:57:00,55.4,51.6,30.03,West,270,0.0,0.0,87,0.00,CLR,,0.00,WeatherDisplay:10.37,2013-10-12 10:57:00,
2013-10-12 06:58:00,55.4,51.6,30.03,West,271,0.0,0.0,87,0.00,CLR,,0.00,WeatherDisplay:10.37,2013-10-12 10:58:00,
2013-10-12 06:59:00,55.3,51.5,30.03,West,270,0.0,0.0,87,0.00,CLR,,0.00,WeatherDisplay:10.37,2013-10-12 10:59:00,
2013-10-12 07:00:00,55.3,51.5,30.04,West,271,0.0,0.0,87,0.00,CLR,,0.00,WeatherDisplay:10.37,2013-10-12 11:00:00,
2013-10-12 07:03:00,55.1,51.3,30.04,West,270,0.0,0.0,87,0.00,CLR,,0.00,WeatherDisplay:10.37,2013-10-12 11:03:00,
2013-10-12 07:05:00,55.1,51.6,30.03,West,270,0.0,0.0,88,0.00,CLR,,0.00,WeatherDisplay:10.37,2013-10-12 11:05:00,
2013-10-12 07:08:00,55.1,51.6,30.04,West,270,0.0,0.0,88,0.00,CLR,,0.00,WeatherDisplay:10.37,2013-10-12 11:08:00,
2013-10-12 07:10:00,55.1,51.6,30.04,West,270,0.0,0.0,88,0.00,CLR,,0.00,WeatherDisplay:10.37,2013-10-12 11:10:00,
2013-10-12 07:13:00,55.0,51.2,30.04,West,270,0.0,0.0,87,0.00,CLR,,0.00,WeatherDisplay:10.37,2013-10-12 11:13:00,
2013-10-12 07:14:00,55.0,51.2,30.04,West,270,0.0,0.0,87,0.00,CLR,,0.00,WeatherDisplay:10.37,2013-10-12 11:14:00,
2013-10-12 07:15:00,55.0,51.2,30.04,West,270,0.0,0.0,87,0.00,CLR,,0.00,WeatherDisplay:10.37,2013-10-12 11:15:00,
2013-10-12 07:17:00,55.0,51.2,30.04,West,270,0.0,0.0,87,0.00,CLR,,0.00,WeatherDisplay:10.37,2013-10-12 11:17:00,
2013-10-12 07:19:00,55.0,51.5,30.04,West,271,0.0,0.0,88,0.00,CLR,,0.00,WeatherDisplay:10.37,2013-10-12 11:19:00,
2013-10-12 07:20:00,54.9,51.4,30.04,West,270,0.0,0.0,88,0.00,CLR,,0.00,WeatherDisplay:10.37,2013-10-12 11:20:00,
2013-10-12 07:21:00,55.0,51.2,30.04,West,271,0.0,0.0,87,0.00,CLR,,0.00,WeatherDisplay:10.37,2013-10-12 11:21:00,
2013-10-12 07:22:00,54.9,51.1,30.04,West,271,0.0,0.0,87,0.00,CLR,,0.00,WeatherDisplay:10.37,2013-10-12 11:22:00,
2013-10-12 07:24:00,54.8,51.0,30.04,West,270,0.0,0.0,87,0.00,CLR,,0.00,WeatherDisplay:10.37,2013-10-12 11:24:00,
2013-10-12 07:25:00,54.8,51.3,30.04,West,270,0.0,0.0,88,0.00,CLR,,0.00,WeatherDisplay:10.37,2013-10-12 11:25:00,
2013-10-12 07:26:00,54.8,51.3,30.04,West,270,0.0,0.0,88,0.00,CLR,,0.00,WeatherDisplay:10.37,2013-10-12 11:26:00,
2013-10-12 07:27:00,54.8,51.3,30.04,West,270,0.0,0.0,88,0.00,CLR,,0.00,WeatherDisplay:10.37,2013-10-12 11:27:00,
2013-10-12 07:29:00,54.8,51.3,30.04,West,270,0.0,0.0,88,0.00,CLR,,0.00,WeatherDisplay:10.37,2013-10-12 11:29:00,
2013-10-12 07:30:00,54.8,51.3,30.04,West,270,0.0,0.0,88,0.00,CLR,,0.00,WeatherDisplay:10.37,2013-10-12 11:30:00,
2013-10-12 07:31:00,54.8,51.3,30.04,West,271,0.0,0.0,88,0.00,CLR,,0.00,WeatherDisplay:10.37,2013-10-12 11:31:00,
2013-10-12 07:32:00,54.8,51.3,30.04,West,270,0.0,0.0,88,0.00,CLR,,0.00,WeatherDisplay:10.37,2013-10-12 11:32:00,
2013-10-12 07:33:00,54.8,51.3,30.04,West,271,0.0,0.0,88,0.00,CLR,,0.00,WeatherDisplay:10.37,2013-10-12 11:33:00,
2013-10-12 07:34:00,54.8,51.0,30.04,West,270,0.0,0.0,87,0.00,CLR,,0.00,WeatherDisplay:10.37,2013-10-12 11:34:00,
2013-10-12 07:35:00,54.7,50.9,30.04,West,270,0.0,0.0,87,0.00,CLR,,0.00,WeatherDisplay:10.37,2013-10-12 11:35:00,
2013-10-12 07:36:00,54.7,50.9,30.04,West,270,0.0,0.0,87,0.00,CLR,,0.00,WeatherDisplay:10.37,2013-10-12 11:36:00,
2013-10-12 07:38:00,54.7,50.9,30.04,West,270,0.0,0.0,87,0.00,CLR,,0.00,WeatherDisplay:10.37,2013-10-12 11:38:00,
2013-10-12 07:40:00,54.6,51.1,30.04,West,270,0.0,0.0,88,0.00,CLR,,0.00,WeatherDisplay:10.37,2013-10-12 11:40:00,
2013-10-12 07:41:00,54.7,51.2,30.04,West,270,0.0,0.0,88,0.00,CLR,,0.00,WeatherDisplay:10.37,2013-10-12 11:41:00,
2013-10-12 07:42:00,54.6,50.8,30.04,West,271,0.0,0.0,87,0.00,CLR,,0.00,WeatherDisplay:10.37,2013-10-12 11:42:00,
2013-10-12 07:43:00,54.6,50.8,30.04,West,271,0.0,0.0,87,0.00,CLR,,0.00,WeatherDisplay:10.37,2013-10-12 11:43:00,
2013-10-12 07:45:00,54.5,50.7,30.04,West,270,0.0,0.0,87,0.00,CLR,,0.00,WeatherDisplay:10.37,2013-10-12 11:45:00,
2013-10-12 07:46:00,54.5,51.0,30.04,West,270,0.0,0.0,88,0.00,CLR,,0.00,WeatherDisplay:10.37,2013-10-12 11:46:00,
2013-10-12 07:47:00,54.5,51.0,30.05,West,270,0.0,0.0,88,0.00,CLR,,0.00,WeatherDisplay:10.37,2013-10-12 11:47:00,
2013-10-12 07:48:00,54.4,50.9,30.05,West,270,0.0,0.0,88,0.00,CLR,,0.00,WeatherDisplay:10.37,2013-10-12 11:48:00,
2013-10-12 07:50:00,54.4,50.9,30.05,West,270,0.0,0.0,88,0.00,CLR,,0.00,WeatherDisplay:10.37,2013-10-12 11:50:00,
2013-10-12 07:51:00,54.4,50.9,30.05,West,271,0.0,0.0,88,0.00,CLR,,0.00,WeatherDisplay:10.37,2013-10-12 11:51:00,
2013-10-12 07:52:00,54.4,50.9,30.05,West,271,0.0,0.0,88,0.00,CLR,,0.00,WeatherDisplay:10.37,2013-10-12 11:52:00,
2013-10-12 07:53:00,54.4,51.2,30.05,West,270,0.0,0.0,89,0.00,CLR,,0.00,WeatherDisplay:10.37,2013-10-12 11:53:00,
2013-10-12 07:55:00,54.4,50.9,30.05,West,267,0.0,0.0,88,0.00,CLR,,0.00,WeatherDisplay:10.37,2013-10-12 11:55:00,
2013-10-12 07:56:00,54.3,50.5,30.05,West,267,0.0,0.0,87,0.00,CLR,,0.00,WeatherDisplay:10.37,2013-10-12 11:56:00,
2013-10-12 07:57:00,54.3,50.8,30.05,West,266,0.0,0.0,88,0.00,CLR,,0.00,WeatherDisplay:10.37,2013-10-12 11:57:00,
2013-10-12 07:58:00,54.4,50.6,30.05,West,267,0.0,0.0,87,0.00,CLR,,0.00,WeatherDisplay:10.37,2013-10-12 11:58:00,
2013-10-12 07:59:00,54.3,50.8,30.05,West,267,0.0,0.0,88,0.00,CLR,,0.00,WeatherDisplay:10.37,2013-10-12 11:59:00,
2013-10-12 08:00:00,54.4,50.9,30.05,West,267,0.0,0.0,88,0.00,CLR,,0.00,WeatherDisplay:10.37,2013-10-12 12:00:00,
2013-10-12 08:01:00,54.4,50.9,30.05,West,267,0.0,0.0,88,0.00,FEW,,0.00,WeatherDisplay:10.37,2013-10-12 12:01:00,
2013-10-12 08:03:00,54.4,50.9,30.05,West,266,0.0,0.0,88,0.00,FEW,,0.00,WeatherDisplay:10.37,2013-10-12 12:03:00,
2013-10-12 08:04:00,54.5,51.0,30.05,West,267,0.0,0.0,88,0.00,FEW,,0.00,WeatherDisplay:10.37,2013-10-12 12:04:00,
2013-10-12 08:05:00,54.5,50.7,30.05,West,267,0.0,0.0,87,0.00,FEW,,0.00,WeatherDisplay:10.37,2013-10-12 12:05:00,
2013-10-12 08:06:00,54.4,50.9,30.05,West,266,0.0,0.0,88,0.00,FEW,,0.00,WeatherDisplay:10.37,2013-10-12 12:06:00,
2013-10-12 08:08:00,54.4,50.6,30.05,West,266,0.0,0.0,87,0.00,FEW,,0.00,WeatherDisplay:10.37,2013-10-12 12:08:00,
2013-10-12 08:09:00,54.5,50.7,30.05,West,266,0.0,0.0,87,0.00,FEW,,0.00,WeatherDisplay:10.37,2013-10-12 12:09:00,
2013-10-12 08:10:00,54.5,50.7,30.06,West,266,0.0,0.0,87,0.00,FEW,,0.00,WeatherDisplay:10.37,2013-10-12 12:10:00,
2013-10-12 08:11:00,54.5,50.7,30.05,West,267,0.0,0.0,87,0.00,FEW,,0.00,WeatherDisplay:10.37,2013-10-12 12:11:00,
2013-10-12 08:13:00,54.5,50.7,30.05,West,267,0.0,0.0,87,0.00,FEW,,0.00,WeatherDisplay:10.37,2013-10-12 12:13:00,
2013-10-12 08:14:00,54.5,50.7,30.06,West,266,0.0,0.0,87,0.00,FEW,,0.00,WeatherDisplay:10.37,2013-10-12 12:14:00,
2013-10-12 08:15:00,54.5,50.7,30.06,West,267,0.0,0.0,87,0.00,FEW,,0.00,WeatherDisplay:10.37,2013-10-12 12:15:00,
2013-10-12 08:16:00,54.6,51.1,30.06,West,267,0.0,0.0,88,0.00,FEW,,0.00,WeatherDisplay:10.37,2013-10-12 12:16:00,
2013-10-12 08:18:00,54.6,51.1,30.06,West,267,0.0,0.0,88,0.00,FEW,,0.00,WeatherDisplay:10.37,2013-10-12 12:18:00,
2013-10-12 08:19:00,54.6,50.8,30.06,West,266,0.0,0.0,87,0.00,FEW,,0.00,WeatherDisplay:10.37,2013-10-12 12:19:00,
2013-10-12 08:20:00,54.6,51.1,30.06,West,267,0.0,0.0,88,0.00,FEW,,0.00,WeatherDisplay:10.37,2013-10-12 12:20:00,
2013-10-12 08:21:00,54.7,51.2,30.06,West,267,0.0,0.0,88,0.00,FEW,,0.00,WeatherDisplay:10.37,2013-10-12 12:21:00,
2013-10-12 08:23:00,54.7,51.2,30.06,West,267,0.0,0.0,88,0.00,FEW,,0.00,WeatherDisplay:10.37,2013-10-12 12:23:00,
2013-10-12 08:25:00,54.8,51.3,30.06,West,267,0.0,0.0,88,0.00,FEW,,0.00,WeatherDisplay:10.37,2013-10-12 12:25:00,
2013-10-12 08:27:00,54.8,51.6,30.06,West,266,0.0,0.0,89,0.00,FEW,,0.00,WeatherDisplay:10.37,2013-10-12 12:27:00,
2013-10-12 08:28:00,54.9,51.7,30.06,West,267,0.0,0.0,89,0.00,FEW,,0.00,WeatherDisplay:10.37,2013-10-12 12:28:00,
2013-10-12 08:30:00,55.0,51.8,30.06,West,267,0.0,0.0,89,0.00,FEW,,0.00,WeatherDisplay:10.37,2013-10-12 12:30:00,
2013-10-12 08:31:00,55.0,51.8,30.06,West,266,0.0,0.0,89,0.00,FEW,,0.00,WeatherDisplay:10.37,2013-10-12 12:31:00,
2013-10-12 08:32:00,55.0,51.8,30.06,West,267,0.0,0.0,89,0.00,FEW,,0.00,WeatherDisplay:10.37,2013-10-12 12:32:00,
2013-10-12 08:33:00,55.1,51.6,30.06,West,267,0.0,0.0,88,0.00,FEW,,0.00,WeatherDisplay:10.37,2013-10-12 12:33:00,
2013-10-12 08:35:00,55.1,51.9,30.06,West,266,0.0,0.0,89,0.00,FEW,,0.00,WeatherDisplay:10.37,2013-10-12 12:35:00,
2013-10-12 08:36:00,55.2,52.0,30.06,West,267,0.0,0.0,89,0.00,FEW,,0.00,WeatherDisplay:10.37,2013-10-12 12:36:00,
2013-10-12 08:37:00,55.2,52.0,30.06,West,267,0.0,0.0,89,0.00,FEW,,0.00,WeatherDisplay:10.37,2013-10-12 12:37:00,
2013-10-12 08:38:00,55.3,51.8,30.06,West,267,0.0,0.0,88,0.00,FEW,,0.00,WeatherDisplay:10.37,2013-10-12 12:38:00,
2013-10-12 08:40:00,55.3,52.1,30.06,West,267,0.0,0.0,89,0.00,FEW,,0.00,WeatherDisplay:10.37,2013-10-12 12:40:00,
2013-10-12 08:41:00,55.4,52.2,30.06,West,267,0.0,0.0,89,0.00,FEW,,0.00,WeatherDisplay:10.37,2013-10-12 12:41:00,
2013-10-12 08:42:00,55.4,52.2,30.06,West,267,0.0,0.0,89,0.00,FEW,,0.00,WeatherDisplay:10.37,2013-10-12 12:42:00,
2013-10-12 08:44:00,55.5,52.3,30.07,West,266,0.0,0.0,89,0.00,FEW,,0.00,WeatherDisplay:10.37,2013-10-12 12:44:00,
2013-10-12 08:45:00,55.6,52.4,30.06,West,267,0.0,0.0,89,0.00,FEW,,0.00,WeatherDisplay:10.37,2013-10-12 12:45:00,
2013-10-12 08:46:00,55.6,52.7,30.07,West,267,0.0,0.0,90,0.00,FEW,,0.00,WeatherDisplay:10.37,2013-10-12 12:46:00,
2013-10-12 08:47:00,55.6,52.4,30.07,West,267,0.0,0.0,89,0.00,FEW,,0.00,WeatherDisplay:10.37,2013-10-12 12:47:00,
2013-10-12 08:49:00,55.8,52.9,30.07,West,266,0.0,0.0,90,0.00,FEW,,0.00,WeatherDisplay:10.37,2013-10-12 12:49:00,
2013-10-12 08:50:00,55.8,52.9,30.07,West,267,0.0,0.0,90,0.00,FEW,,0.00,WeatherDisplay:10.37,2013-10-12 12:50:00,
2013-10-12 08:51:00,55.8,52.9,30.06,West,267,0.0,0.0,90,0.00,FEW,,0.00,WeatherDisplay:10.37,2013-10-12 12:51:00,
2013-10-12 08:52:00,55.9,52.7,30.07,West,267,0.0,0.0,89,0.00,FEW,,0.00,WeatherDisplay:10.37,2013-10-12 12:52:00,
2013-10-12 08:54:00,56.0,53.1,30.07,West,267,0.0,0.0,90,0.00,FEW,,0.00,WeatherDisplay:10.37,2013-10-12 12:54:00,
2013-10-12 08:56:00,56.2,53.3,30.07,West,267,0.0,0.0,90,0.00,FEW,,0.00,WeatherDisplay:10.37,2013-10-12 12:56:00,
2013-10-12 08:58:00,56.1,53.2,30.07,West,267,0.0,0.0,90,0.00,FEW,,0.00,WeatherDisplay:10.37,2013-10-12 12:58:00,
2013-10-12 08:59:00,56.3,53.7,30.07,West,267,0.0,0.0,91,0.00,FEW,,0.00,WeatherDisplay:10.37,2013-10-12 12:59:00,
2013-10-12 09:01:00,56.3,53.7,30.07,West,267,0.0,0.0,91,0.00,FEW,,0.00,WeatherDisplay:10.37,2013-10-12 13:01:00,
2013-10-12 09:02:00,56.4,53.8,30.07,West,267,0.0,0.0,91,0.00,FEW,,0.00,WeatherDisplay:10.37,2013-10-12 13:02:00,
2013-10-12 09:03:00,56.4,53.8,30.05,West,266,0.0,0.0,91,0.00,FEW,,0.00,WeatherDisplay:10.37,2013-10-12 13:03:00,
2013-10-12 09:04:00,56.5,53.9,30.07,West,267,0.0,0.0,91,0.00,FEW,,0.00,WeatherDisplay:10.37,2013-10-12 13:04:00,
2013-10-12 09:06:00,56.6,54.0,30.07,West,267,0.0,0.0,91,0.00,FEW,,0.00,WeatherDisplay:10.37,2013-10-12 13:06:00,
2013-10-12 09:07:00,56.6,54.0,30.07,West,267,0.0,0.0,91,0.00,FEW,,0.00,WeatherDisplay:10.37,2013-10-12 13:07:00,
2013-10-12 09:08:00,56.6,54.0,30.07,West,267,0.0,0.0,91,0.00,FEW,,0.00,WeatherDisplay:10.37,2013-10-12 13:08:00,
2013-10-12 09:09:00,56.7,54.1,30.07,West,267,0.0,0.0,91,0.00,FEW,,0.00,WeatherDisplay:10.37,2013-10-12 13:09:00,
2013-10-12 09:12:00,56.8,54.2,30.07,West,267,0.0,0.0,91,0.00,FEW,,0.00,WeatherDisplay:10.37,2013-10-12 13:12:00,
2013-10-12 09:13:00,56.9,54.3,30.07,West,267,0.0,0.0,91,0.00,FEW,,0.00,WeatherDisplay:10.37,2013-10-12 13:13:00,
2013-10-12 09:14:00,56.9,54.3,30.07,West,267,0.0,0.0,91,0.00,FEW,,0.00,WeatherDisplay:10.37,2013-10-12 13:14:00,
2013-10-12 09:15:00,57.0,54.4,30.07,West,267,0.0,0.0,91,0.00,FEW,,0.00,WeatherDisplay:10.37,2013-10-12 13:15:00,
2013-10-12 09:17:00,57.1,54.5,30.06,West,267,0.0,0.0,91,0.00,FEW,,0.00,WeatherDisplay:10.37,2013-10-12 13:17:00,
2013-10-12 09:19:00,57.1,54.5,30.07,West,267,0.0,0.0,91,0.00,FEW,,0.00,WeatherDisplay:10.37,2013-10-12 13:19:00,
2013-10-12 09:20:00,57.2,54.3,30.07,West,267,0.0,0.0,90,0.00,FEW,,0.00,WeatherDisplay:10.37,2013-10-12 13:20:00,
2013-10-12 09:22:00,57.3,54.7,30.05,West,267,0.0,0.0,91,0.00,FEW,,0.00,WeatherDisplay:10.37,2013-10-12 13:22:00,
2013-10-12 09:24:00,57.4,54.8,30.06,West,267,0.1,0.0,91,0.00,FEW,,0.00,WeatherDisplay:10.37,2013-10-12 13:24:00,
2013-10-12 09:25:00,57.4,54.8,30.07,West,266,0.0,1.1,91,0.00,FEW,,0.00,WeatherDisplay:10.37,2013-10-12 13:25:00,
2013-10-12 09:27:00,57.5,54.6,30.07,West,267,0.0,0.0,90,0.00,FEW,,0.00,WeatherDisplay:10.37,2013-10-12 13:27:00,
2013-10-12 09:29:00,57.5,54.6,30.07,West,267,0.0,0.0,90,0.00,FEW,,0.00,WeatherDisplay:10.37,2013-10-12 13:29:00,
2013-10-12 09:30:00,57.5,54.6,30.07,West,267,0.0,0.0,90,0.00,FEW,,0.00,WeatherDisplay:10.37,2013-10-12 13:30:00,
2013-10-12 09:31:00,57.6,54.7,30.07,West,266,0.0,0.0,90,0.00,FEW,,0.00,WeatherDisplay:10.37,2013-10-12 13:31:00,
2013-10-12 09:32:00,57.5,54.6,30.07,West,267,0.0,0.0,90,0.00,FEW,,0.00,WeatherDisplay:10.37,2013-10-12 13:32:00,
2013-10-12 09:34:00,57.7,55.1,30.07,West,267,0.0,0.0,91,0.00,FEW,,0.00,WeatherDisplay:10.37,2013-10-12 13:34:00,
2013-10-12 09:35:00,57.8,55.2,30.07,West,267,0.0,0.0,91,0.00,FEW,,0.00,WeatherDisplay:10.37,2013-10-12 13:35:00,
2013-10-12 09:36:00,57.9,55.3,30.07,West,267,0.0,0.0,91,0.00,FEW,,0.00,WeatherDisplay:10.37,2013-10-12 13:36:00,
2013-10-12 09:38:00,58.0,55.7,30.07,West,266,0.0,0.0,92,0.00,FEW,,0.00,WeatherDisplay:10.37,2013-10-12 13:38:00,
2013-10-12 09:39:00,58.0,55.7,30.07,West,267,0.0,0.0,92,0.00,FEW,,0.00,WeatherDisplay:10.37,2013-10-12 13:39:00,
2013-10-12 09:40:00,58.1,56.1,30.07,West,267,0.0,0.0,93,0.00,FEW,,0.00,WeatherDisplay:10.37,2013-10-12 13:40:00,
2013-10-12 09:41:00,58.2,56.2,30.07,West,267,0.0,0.0,93,0.00,FEW,,0.00,WeatherDisplay:10.37,2013-10-12 13:41:00,
2013-10-12 09:43:00,58.3,56.3,30.07,West,267,0.0,1.1,93,0.00,FEW,,0.00,WeatherDisplay:10.37,2013-10-12 13:43:00,
2013-10-12 09:44:00,58.4,56.4,30.07,West,267,0.0,0.0,93,0.00,FEW,,0.00,WeatherDisplay:10.37,2013-10-12 13:44:00,
2013-10-12 09:45:00,58.5,56.8,30.07,West,267,0.7,3.5,94,0.00,FEW,,0.00,WeatherDisplay:10.37,2013-10-12 13:45:00,
2013-10-12 09:46:00,58.5,56.5,30.07,West,267,0.0,0.0,93,0.00,FEW,,0.00,WeatherDisplay:10.37,2013-10-12 13:46:00,
2013-10-12 09:48:00,58.7,57.0,30.07,West,267,0.0,0.0,94,0.00,FEW,,0.00,WeatherDisplay:10.37,2013-10-12 13:48:00,
2013-10-12 09:49:00,58.8,57.1,30.07,West,267,0.0,1.1,94,0.00,FEW,,0.00,WeatherDisplay:10.37,2013-10-12 13:49:00,
2013-10-12 09:50:00,58.9,57.2,30.07,SW,234,1.4,2.3,94,0.00,FEW,,0.00,WeatherDisplay:10.37,2013-10-12 13:50:00,
2013-10-12 09:51:00,58.9,57.2,30.07,SSW,203,1.4,3.5,94,0.00,FEW,,0.00,WeatherDisplay:10.37,2013-10-12 13:51:00,
2013-10-12 09:53:00,59.1,57.4,30.07,SSW,206,1.2,5.0,94,0.00,FEW,,0.00,WeatherDisplay:10.37,2013-10-12 13:53:00,
2013-10-12 09:54:00,59.2,57.5,30.07,WSW,246,3.0,4.6,94,0.00,FEW,,0.00,WeatherDisplay:10.37,2013-10-12 13:54:00,
2013-10-12 09:55:00,59.3,57.6,30.07,SW,225,0.3,5.8,94,0.00,FEW,,0.00,WeatherDisplay:10.37,2013-10-12 13:55:00,
2013-10-12 09:56:00,59.4,57.7,30.07,SW,228,1.3,3.5,94,0.00,FEW,,0.00,WeatherDisplay:10.37,2013-10-12 13:56:00,
2013-10-12 09:58:00,59.6,57.9,30.07,SW,235,1.6,4.0,94,0.00,FEW,,0.00,WeatherDisplay:10.37,2013-10-12 13:58:00,
2013-10-12 09:59:00,59.6,57.9,30.07,SSW,211,2.9,4.6,94,0.00,FEW,,0.00,WeatherDisplay:10.37,2013-10-12 13:59:00,
2013-10-12 10:00:00,59.7,58.0,30.07,SSW,211,0.8,4.6,94,0.00,FEW,,0.00,WeatherDisplay:10.37,2013-10-12 14:00:00,
2013-10-12 10:02:00,59.8,58.1,30.07,SSW,212,1.9,4.0,94,0.00,FEW,,0.00,WeatherDisplay:10.37,2013-10-12 14:02:00,
2013-10-12 10:04:00,59.9,57.9,30.07,SW,226,2.6,4.6,93,0.00,FEW,,0.00,WeatherDisplay:10.37,2013-10-12 14:04:00,
2013-10-12 10:05:00,60.0,58.3,30.07,SW,234,2.4,4.6,94,0.00,FEW,,0.00,WeatherDisplay:10.37,2013-10-12 14:05:00,
2013-10-12 10:06:00,60.0,58.0,30.07,SW,234,1.3,4.6,93,0.00,FEW,,0.00,WeatherDisplay:10.37,2013-10-12 14:06:00,
2013-10-12 10:07:00,60.1,58.4,30.07,SW,224,1.0,3.5,94,0.00,FEW,,0.00,WeatherDisplay:10.37,2013-10-12 14:07:00,
2013-10-12 10:09:00,60.2,58.2,30.07,SSW,206,1.0,3.5,93,0.00,FEW,,0.00,WeatherDisplay:10.37,2013-10-12 14:09:00,
2013-10-12 10:10:00,60.3,58.3,30.07,SSW,201,0.6,2.3,93,0.00,FEW,,0.00,WeatherDisplay:10.37,2013-10-12 14:10:00,
2013-10-12 10:11:00,60.3,58.3,30.07,SSW,201,0.3,2.3,93,0.00,FEW,,0.00,WeatherDisplay:10.37,2013-10-12 14:11:00,
2013-10-12 10:12:00,60.4,58.4,30.07,SSW,198,1.6,5.0,93,0.00,FEW,,0.00,WeatherDisplay:10.37,2013-10-12 14:12:00,
2013-10-12 10:14:00,60.5,58.5,30.07,SSW,199,0.5,3.5,93,0.00,FEW,,0.00,WeatherDisplay:10.37,2013-10-12 14:14:00,
2013-10-12 10:16:00,60.6,58.9,30.07,SSW,197,2.5,5.0,94,0.00,FEW,,0.00,WeatherDisplay:10.37,2013-10-12 14:16:00,
2013-10-12 10:17:00,60.7,58.7,30.07,SSW,206,2.3,3.5,93,0.00,FEW,,0.00,WeatherDisplay:10.37,2013-10-12 14:17:00,
2013-10-12 10:18:00,60.7,58.7,30.07,SSW,206,0.8,3.5,93,0.00,FEW,,0.00,WeatherDisplay:10.37,2013-10-12 14:18:00,
2013-10-12 10:19:00,60.8,58.5,30.07,SSW,207,1.6,3.5,92,0.00,FEW,,0.00,WeatherDisplay:10.37,2013-10-12 14:19:00,
2013-10-12 10:21:00,60.9,58.6,30.07,SSW,203,1.3,3.5,92,0.00,FEW,,0.00,WeatherDisplay:10.37,2013-10-12 14:21:00,
2013-10-12 10:23:00,60.9,58.6,30.07,SSW,199,1.4,1.4,92,0.00,FEW,,0.00,WeatherDisplay:10.37,2013-10-12 14:23:00,
2013-10-12 10:24:00,61.0,58.4,30.07,SSW,199,0.0,0.0,91,0.00,FEW,,0.00,WeatherDisplay:10.37,2013-10-12 14:24:00,
2013-10-12 10:25:00,61.1,58.5,30.07,SSW,198,0.0,0.0,91,0.00,FEW,,0.00,WeatherDisplay:10.37,2013-10-12 14:25:00,
2013-10-12 10:26:00,61.1,58.5,30.07,SSW,198,0.0,1.0,91,0.00,FEW,,0.00,WeatherDisplay:10.37,2013-10-12 14:26:00,
2013-10-12 10:28:00,61.3,58.7,30.07,SSW,197,0.3,3.0,91,0.00,FEW,,0.00,WeatherDisplay:10.37,2013-10-12 14:28:00,
2013-10-12 10:29:00,61.3,58.7,30.07,SSW,198,0.1,3.5,91,0.00,FEW,,0.00,WeatherDisplay:10.37,2013-10-12 14:29:00,
2013-10-12 10:30:00,61.4,58.4,30.07,SSW,199,0.8,3.5,90,0.00,FEW,,0.00,WeatherDisplay:10.37,2013-10-12 14:30:00,
2013-10-12 10:31:00,61.5,58.5,30.07,SSW,198,0.0,2.3,90,0.00,FEW,,0.00,WeatherDisplay:10.37,2013-10-12 14:31:00,
2013-10-12 10:33:00,61.7,58.7,30.07,South,191,0.6,3.5,90,0.00,FEW,,0.00,WeatherDisplay:10.37,2013-10-12 14:33:00,
2013-10-12 10:34:00,61.8,58.8,30.07,South,190,0.0,0.0,90,0.00,FEW,,0.00,WeatherDisplay:10.37,2013-10-12 14:34:00,
2013-10-12 10:36:00,62.0,59.0,30.07,South,190,0.0,2.0,90,0.00,FEW,,0.00,WeatherDisplay:10.37,2013-10-12 14:36:00,
2013-10-12 10:37:00,62.0,59.0,30.07,South,190,1.0,3.5,90,0.00,FEW,,0.00,WeatherDisplay:10.37,2013-10-12 14:37:00,
2013-10-12 10:38:00,62.2,59.2,30.07,South,190,0.0,0.0,90,0.00,FEW,,0.00,WeatherDisplay:10.37,2013-10-12 14:38:00,
2013-10-12 10:39:00,62.4,59.1,30.07,South,190,0.7,3.5,89,0.00,FEW,,0.00,WeatherDisplay:10.37,2013-10-12 14:39:00,
2013-10-12 10:40:00,62.5,59.2,30.07,South,190,0.0,2.3,89,0.00,FEW,,0.00,WeatherDisplay:10.37,2013-10-12 14:40:00,
2013-10-12 10:41:00,62.6,59.0,30.07,South,190,0.5,2.3,88,0.00,FEW,,0.00,WeatherDisplay:10.37,2013-10-12 14:41:00,
2013-10-12 10:42:00,62.7,59.1,30.07,South,190,0.0,0.0,88,0.00,FEW,,0.00,WeatherDisplay:10.37,2013-10-12 14:42:00,
2013-10-12 10:43:00,62.8,58.9,30.07,South,190,0.0,2.3,87,0.00,FEW,,0.00,WeatherDisplay:10.37,2013-10-12 14:43:00,
2013-10-12 10:44:00,63.0,59.1,30.07,South,190,0.0,0.0,87,0.00,FEW,,0.00,WeatherDisplay:10.37,2013-10-12 14:44:00,
2013-10-12 10:45:00,63.0,59.1,30.07,South,190,0.0,0.0,87,0.00,FEW,,0.00,WeatherDisplay:10.37,2013-10-12 14:45:00,
2013-10-12 10:46:00,63.1,59.2,30.07,South,190,0.0,0.0,87,0.00,FEW,,0.00,WeatherDisplay:10.37,2013-10-12 14:46:00,
2013-10-12 10:47:00,63.2,58.9,30.07,South,190,0.0,0.0,86,0.00,FEW,,0.00,WeatherDisplay:10.37,2013-10-12 14:47:00,
2013-10-12 10:48:00,63.3,59.0,30.06,South,190,0.0,0.0,86,0.00,FEW,,0.00,WeatherDisplay:10.37,2013-10-12 14:48:00,
2013-10-12 10:49:00,63.4,58.8,30.06,South,190,0.0,0.0,85,0.00,FEW,,0.00,WeatherDisplay:10.37,2013-10-12 14:49:00,
2013-10-12 10:50:00,63.4,58.8,30.06,South,190,0.0,0.0,85,0.00,FEW,,0.00,WeatherDisplay:10.37,2013-10-12 14:50:00,
2013-10-12 10:51:00,63.5,58.6,30.07,South,190,0.0,0.0,84,0.00,FEW,,0.00,WeatherDisplay:10.37,2013-10-12 14:51:00,
2013-10-12 10:53:00,63.7,58.8,30.06,South,190,0.0,0.0,84,0.00,FEW,,0.00,WeatherDisplay:10.37,2013-10-12 14:53:00,
2013-10-12 10:55:00,63.8,58.5,30.06,South,190,0.0,0.0,83,0.00,FEW,,0.00,WeatherDisplay:10.37,2013-10-12 14:55:00,
2013-10-12 10:56:00,63.9,58.3,30.06,South,191,0.0,0.0,82,0.00,FEW,,0.00,WeatherDisplay:10.37,2013-10-12 14:56:00,
2013-10-12 10:58:00,64.0,58.4,30.06,SSW,193,0.4,1.0,82,0.00,FEW,,0.00,WeatherDisplay:10.37,2013-10-12 14:58:00,
2013-10-12 11:00:00,64.3,58.7,30.06,SSW,193,0.0,2.3,82,0.00,FEW,,0.00,WeatherDisplay:10.37,2013-10-12 15:00:00,
2013-10-12 11:01:00,64.3,58.7,30.06,SSW,193,0.0,0.0,82,0.00,FEW,,0.00,WeatherDisplay:10.37,2013-10-12 15:01:00,
2013-10-12 11:02:00,64.4,59.1,30.06,SSW,193,0.0,1.0,83,0.00,FEW,,0.00,WeatherDisplay:10.37,2013-10-12 15:02:00,
2013-10-12 11:03:00,64.6,59.3,30.06,SSW,193,0.0,3.5,83,0.00,FEW,,0.00,WeatherDisplay:10.37,2013-10-12 15:03:00,
2013-10-12 11:05:00,64.9,59.9,30.06,SSW,193,0.1,1.0,84,0.00,FEW,,0.00,WeatherDisplay:10.37,2013-10-12 15:05:00,
2013-10-12 11:06:00,65.0,60.0,30.06,South,187,0.3,2.3,84,0.00,FEW,,0.00,WeatherDisplay:10.37,2013-10-12 15:06:00,
2013-10-12 11:07:00,65.1,59.8,30.06,South,185,0.4,2.3,83,0.00,FEW,,0.00,WeatherDisplay:10.37,2013-10-12 15:07:00,
2013-10-12 11:08:00,65.3,60.0,30.06,South,188,0.0,2.3,83,0.00,FEW,,0.00,WeatherDisplay:10.37,2013-10-12 15:08:00,
2013-10-12 11:10:00,65.5,60.5,30.06,South,187,0.1,1.1,84,0.00,FEW,,0.00,WeatherDisplay:10.37,2013-10-12 15:10:00,
2013-10-12 11:11:00,65.5,60.5,30.06,South,187,0.1,1.1,84,0.00,FEW,,0.00,WeatherDisplay:10.37,2013-10-12 15:11:00,
2013-10-12 11:12:00,65.7,60.1,30.06,South,188,0.4,3.5,82,0.00,FEW,,0.00,WeatherDisplay:10.37,2013-10-12 15:12:00,
2013-10-12 11:13:00,65.7,60.1,30.06,South,187,0.0,3.5,82,0.00,FEW,,0.00,WeatherDisplay:10.37,2013-10-12 15:13:00,
2013-10-12 11:14:00,65.8,60.2,30.06,SSE,164,0.0,0.0,82,0.00,FEW,,0.00,WeatherDisplay:10.37,2013-10-12 15:14:00,
2013-10-12 11:15:00,66.1,60.8,30.06,SSE,164,0.0,0.0,83,0.00,FEW,,0.00,WeatherDisplay:10.37,2013-10-12 15:15:00,
2013-10-12 11:16:00,66.1,60.8,30.06,SSE,164,0.0,0.0,83,0.00,FEW,,0.00,WeatherDisplay:10.37,2013-10-12 15:16:00,
2013-10-12 11:17:00,66.2,59.8,30.06,SW,231,2.4,3.5,80,0.00,FEW,,0.00,WeatherDisplay:10.37,2013-10-12 15:17:00,
2013-10-12 11:18:00,66.3,59.9,30.06,SW,231,1.7,3.5,80,0.00,FEW,,0.00,WeatherDisplay:10.37,2013-10-12 15:18:00,
2013-10-12 11:19:00,66.4,60.0,30.06,SW,231,0.0,0.0,80,0.00,FEW,,0.00,WeatherDisplay:10.37,2013-10-12 15:19:00,
2013-10-12 11:21:00,66.5,59.8,30.06,SSW,207,1.5,6.0,79,0.00,FEW,,0.00,WeatherDisplay:10.37,2013-10-12 15:21:00,
2013-10-12 11:23:00,66.7,60.0,30.06,SSW,196,0.0,5.8,79,0.00,FEW,,0.00,WeatherDisplay:10.37,2013-10-12 15:23:00,
2013-10-12 11:24:00,66.8,60.4,30.06,SSW,196,0.0,0.0,80,0.00,FEW,,0.00,WeatherDisplay:10.37,2013-10-12 15:24:00,
2013-10-12 11:26:00,66.8,60.4,30.06,SSW,196,0.0,0.0,80,0.00,FEW,,0.00,WeatherDisplay:10.37,2013-10-12 15:26:00,
2013-10-12 11:28:00,67.2,60.8,30.06,SSW,192,2.4,3.5,80,0.00,FEW,,0.00,WeatherDisplay:10.37,2013-10-12 15:28:00,
2013-10-12 11:29:00,67.4,60.7,30.06,SSW,195,1.5,3.5,79,0.00,FEW,,0.00,WeatherDisplay:10.37,2013-10-12 15:29:00,
2013-10-12 11:31:00,67.5,61.1,30.06,SSW,193,0.9,3.5,80,0.00,FEW,,0.00,WeatherDisplay:10.37,2013-10-12 15:31:00,
2013-10-12 11:33:00,67.7,61.3,30.06,South,170,0.0,0.0,80,0.00,FEW,,0.00,WeatherDisplay:10.37,2013-10-12 15:33:00,
2013-10-12 11:34:00,67.7,61.3,30.06,South,170,0.0,0.0,80,0.00,FEW,,0.00,WeatherDisplay:10.37,2013-10-12 15:34:00,
2013-10-12 11:36:00,67.9,60.4,30.06,SSW,206,1.4,4.6,77,0.00,FEW,,0.00,WeatherDisplay:10.37,2013-10-12 15:36:00,
2013-10-12 11:38:00,68.0,60.5,30.06,SSW,206,1.7,4.6,77,0.00,FEW,,0.00,WeatherDisplay:10.37,2013-10-12 15:38:00,
2013-10-12 11:39:00,68.0,60.2,30.06,SW,227,2.7,4.6,76,0.00,FEW,,0.00,WeatherDisplay:10.37,2013-10-12 15:39:00,
2013-10-12 11:41:00,68.0,60.2,30.06,SW,230,0.0,0.0,76,0.00,FEW,,0.00,WeatherDisplay:10.37,2013-10-12 15:41:00,
2013-10-12 11:42:00,68.2,60.3,30.06,SW,230,0.0,0.0,76,0.00,FEW,,0.00,WeatherDisplay:10.37,2013-10-12 15:42:00,
2013-10-12 11:43:00,68.2,60.7,30.06,SE,138,0.2,2.3,77,0.00,FEW,,0.00,WeatherDisplay:10.37,2013-10-12 15:43:00,
2013-10-12 11:44:00,68.0,60.9,30.06,SE,137,1.0,3.5,78,0.00,FEW,,0.00,WeatherDisplay:10.37,2013-10-12 15:44:00,
2013-10-12 11:45:00,68.3,61.2,30.06,SE,133,0.6,3.5,78,0.00,FEW,,0.00,WeatherDisplay:10.37,2013-10-12 15:45:00,
2013-10-12 11:46:00,68.6,60.7,30.06,SSW,192,0.3,3.0,76,0.00,FEW,,0.00,WeatherDisplay:10.37,2013-10-12 15:46:00,
2013-10-12 11:47:00,68.4,60.2,30.06,SSW,193,1.0,3.5,75,0.00,FEW,,0.00,WeatherDisplay:10.37,2013-10-12 15:47:00,
2013-10-12 11:49:00,68.2,60.3,30.06,SSE,154,0.2,1.1,76,0.00,FEW,,0.00,WeatherDisplay:10.37,2013-10-12 15:49:00,
2013-10-12 11:50:00,65.9,58.1,30.06,SE,135,0.9,3.0,76,0.00,FEW,,0.00,WeatherDisplay:10.37,2013-10-12 15:50:00,
2013-10-12 11:52:00,69.4,61.9,30.06,SSE,166,0.0,3.5,77,0.00,FEW,,0.00,WeatherDisplay:10.37,2013-10-12 15:52:00,
2013-10-12 11:54:00,69.6,61.7,30.06,South,169,0.1,2.0,76,0.00,FEW,,0.00,WeatherDisplay:10.37,2013-10-12 15:54:00,
2013-10-12 11:56:00,69.7,61.4,30.06,South,177,1.6,3.5,75,0.00,FEW,,0.00,WeatherDisplay:10.37,2013-10-12 15:56:00,
2013-10-12 11:57:00,69.8,60.8,30.06,SW,215,2.0,4.6,73,0.00,FEW,,0.00,WeatherDisplay:10.37,2013-10-12 15:57:00,
2013-10-12 11:59:00,70.0,60.6,30.06,SW,215,0.0,0.0,72,0.00,FEW,,0.00,WeatherDisplay:10.37,2013-10-12 15:59:00,
2013-10-12 12:00:00,70.1,61.0,30.06,SSE,158,0.4,0.0,73,0.00,FEW,,0.00,WeatherDisplay:10.37,2013-10-12 16:00:00,
2013-10-12 12:01:00,70.1,61.0,30.06,SSE,155,0.4,0.0,73,0.00,FEW,,0.00,WeatherDisplay:10.37,2013-10-12 16:01:00,
2013-10-12 12:02:00,70.2,61.5,30.06,SSE,168,0.8,3.5,74,0.00,SCT,,0.00,WeatherDisplay:10.37,2013-10-12 16:02:00,
2013-10-12 12:03:00,70.3,61.6,30.06,South,169,0.4,3.5,74,0.00,SCT,,0.00,WeatherDisplay:10.37,2013-10-12 16:03:00,
2013-10-12 12:05:00,70.3,60.4,30.06,SSW,208,0.4,1.1,71,0.00,SCT,,0.00,WeatherDisplay:10.37,2013-10-12 16:05:00,
2013-10-12 12:06:00,70.3,60.8,30.06,SSW,208,0.0,0.0,72,0.00,SCT,,0.00,WeatherDisplay:10.37,2013-10-12 16:06:00,
2013-10-12 12:07:00,70.3,60.8,30.06,SSW,208,0.0,0.0,72,0.00,SCT,,0.00,WeatherDisplay:10.37,2013-10-12 16:07:00,
2013-10-12 12:08:00,70.2,60.0,30.06,SSW,208,0.0,1.1,70,0.00,SCT,,0.00,WeatherDisplay:10.37,2013-10-12 16:08:00,
2013-10-12 12:10:00,70.2,60.0,30.06,SSW,208,0.0,0.0,70,0.00,SCT,,0.00,WeatherDisplay:10.37,2013-10-12 16:10:00,
2013-10-12 12:11:00,70.4,60.9,30.06,South,172,0.3,0.0,72,0.00,SCT,,0.00,WeatherDisplay:10.37,2013-10-12 16:11:00,
2013-10-12 12:12:00,70.4,60.5,30.06,South,172,0.3,0.0,71,0.00,SCT,,0.00,WeatherDisplay:10.37,2013-10-12 16:12:00,
2013-10-12 12:13:00,71.1,60.4,30.06,South,172,0.2,2.3,69,0.00,SCT,,0.00,WeatherDisplay:10.37,2013-10-12 16:13:00,
2013-10-12 12:14:00,71.2,60.5,30.06,South,172,0.0,1.1,69,0.00,SCT,,0.00,WeatherDisplay:10.37,2013-10-12 16:14:00,
2013-10-12 12:15:00,71.3,60.6,30.06,SSE,164,0.0,1.1,69,0.00,SCT,,0.00,WeatherDisplay:10.37,2013-10-12 16:15:00,
2013-10-12 12:17:00,71.2,61.3,30.06,SE,144,0.0,1.1,71,0.00,SCT,,0.00,WeatherDisplay:10.37,2013-10-12 16:17:00,
2013-10-12 12:18:00,71.3,60.6,30.06,SE,144,0.1,0.0,69,0.00,SCT,,0.00,WeatherDisplay:10.37,2013-10-12 16:18:00,
2013-10-12 12:20:00,71.4,61.1,30.06,SE,144,0.0,0.0,70,0.00,SCT,,0.00,WeatherDisplay:10.37,2013-10-12 16:20:00,
2013-10-12 12:22:00,71.7,61.0,30.06,SE,139,0.0,0.0,69,0.00,SCT,,0.00,WeatherDisplay:10.37,2013-10-12 16:22:00,
2013-10-12 12:23:00,71.9,61.2,30.06,SE,140,0.0,0.0,69,0.00,SCT,,0.00,WeatherDisplay:10.37,2013-10-12 16:23:00,
2013-10-12 12:25:00,72.1,59.7,30.06,SE,139,0.0,1.1,65,0.00,SCT,,0.00,WeatherDisplay:10.37,2013-10-12 16:25:00,
2013-10-12 12:27:00,72.1,59.7,30.06,WSW,242,0.0,1.1,65,0.00,SCT,,0.00,WeatherDisplay:10.37,2013-10-12 16:27:00,
2013-10-12 12:28:00,72.1,59.2,30.06,WSW,241,0.0,0.0,64,0.00,SCT,,0.00,WeatherDisplay:10.37,2013-10-12 16:28:00,
2013-10-12 12:29:00,72.2,58.5,30.06,West,265,0.1,3.0,62,0.00,SCT,,0.00,WeatherDisplay:10.37,2013-10-12 16:29:00,
2013-10-12 12:30:00,72.3,58.5,30.06,West,266,0.5,3.5,62,0.00,SCT,,0.00,WeatherDisplay:10.37,2013-10-12 16:30:00,
2013-10-12 12:31:00,72.3,58.5,30.06,West,264,0.4,3.5,62,0.00,SCT,,0.00,WeatherDisplay:10.37,2013-10-12 16:31:00,
2013-10-12 12:33:00,72.4,57.3,30.06,North,358,2.3,5.0,59,0.00,SCT,,0.00,WeatherDisplay:10.37,2013-10-12 16:33:00,
2013-10-12 12:34:00,72.4,56.8,30.06,North,355,0.9,4.6,58,0.00,SCT,,0.00,WeatherDisplay:10.37,2013-10-12 16:34:00,
2013-10-12 12:36:00,72.3,57.6,30.06,North,355,0.0,3.5,60,0.00,SCT,,0.00,WeatherDisplay:10.37,2013-10-12 16:36:00,
2013-10-12 12:38:00,72.8,59.5,30.06,NE,49,1.7,3.5,63,0.00,SCT,,0.00,WeatherDisplay:10.37,2013-10-12 16:38:00,
2013-10-12 12:39:00,72.9,60.0,30.06,NE,50,0.3,2.3,64,0.00,SCT,,0.00,WeatherDisplay:10.37,2013-10-12 16:39:00,
2013-10-12 12:41:00,73.1,60.2,30.06,NE,52,0.1,1.1,64,0.00,SCT,,0.00,WeatherDisplay:10.37,2013-10-12 16:41:00,
2013-10-12 12:44:00,73.4,58.7,30.05,ENE,65,1.5,3.5,60,0.00,SCT,,0.00,WeatherDisplay:10.37,2013-10-12 16:44:00,
2013-10-12 12:46:00,73.5,59.7,30.05,ENE,62,0.1,0.0,62,0.00,SCT,,0.00,WeatherDisplay:10.37,2013-10-12 16:46:00,
2013-10-12 12:49:00,73.9,60.5,30.05,ENE,67,0.0,1.1,63,0.00,SCT,,0.00,WeatherDisplay:10.37,2013-10-12 16:49:00,
2013-10-12 12:50:00,73.9,60.1,30.05,North,352,1.2,4.0,62,0.00,SCT,,0.00,WeatherDisplay:10.37,2013-10-12 16:50:00,
2013-10-12 12:51:00,74.0,58.8,30.05,NE,51,3.9,5.8,59,0.00,SCT,,0.00,WeatherDisplay:10.37,2013-10-12 16:51:00,
2013-10-12 12:54:00,74.0,58.8,30.05,NNW,331,2.8,5.8,59,0.00,SCT,,0.00,WeatherDisplay:10.37,2013-10-12 16:54:00,
2013-10-12 12:55:00,74.0,59.2,30.05,NW,319,0.4,2.3,60,0.00,SCT,,0.00,WeatherDisplay:10.37,2013-10-12 16:55:00,
2013-10-12 12:56:00,73.9,59.1,30.05,NNW,342,1.1,5.8,60,0.00,SCT,,0.00,WeatherDisplay:10.37,2013-10-12 16:56:00,
2013-10-12 12:57:00,73.9,59.1,30.05,NW,319,3.0,5.8,60,0.00,SCT,,0.00,WeatherDisplay:10.37,2013-10-12 16:57:00,
2013-10-12 12:59:00,74.0,59.2,30.05,NW,324,4.1,6.9,60,0.00,SCT,,0.00,WeatherDisplay:10.37,2013-10-12 16:59:00,
2013-10-12 13:00:00,73.9,58.7,30.05,NNW,335,5.0,6.9,59,0.00,SCT,,0.00,WeatherDisplay:10.37,2013-10-12 17:00:00,
2013-10-12 13:01:00,73.9,59.1,30.05,NNW,335,3.2,6.9,60,0.00,SCT,,0.00,WeatherDisplay:10.37,2013-10-12 17:01:00,
2013-10-12 13:02:00,73.9,59.1,30.05,NNW,348,3.0,4.6,60,0.00,SCT,,0.00,WeatherDisplay:10.37,2013-10-12 17:02:00,
2013-10-12 13:04:00,73.9,59.6,30.05,North,358,2.3,5.0,61,0.00,SCT,,0.00,WeatherDisplay:10.37,2013-10-12 17:04:00,
2013-10-12 13:05:00,74.0,59.2,30.05,North,2,4.1,5.8,60,0.00,SCT,,0.00,WeatherDisplay:10.37,2013-10-12 17:05:00,
2013-10-12 13:06:00,74.0,58.8,30.05,North,355,3.8,5.8,59,0.00,SCT,,0.00,WeatherDisplay:10.37,2013-10-12 17:06:00,
2013-10-12 13:07:00,74.1,59.3,30.05,North,355,0.2,5.8,60,0.00,SCT,,0.00,WeatherDisplay:10.37,2013-10-12 17:07:00,
2013-10-12 13:09:00,74.3,59.0,30.05,North,355,3.2,6.9,59,0.00,SCT,,0.00,WeatherDisplay:10.37,2013-10-12 17:09:00,
2013-10-12 13:10:00,74.3,59.5,30.05,North,355,1.2,3.5,60,0.00,SCT,,0.00,WeatherDisplay:10.37,2013-10-12 17:10:00,
2013-10-12 13:11:00,74.3,59.5,30.05,North,9,1.4,3.5,60,0.00,SCT,,0.00,WeatherDisplay:10.37,2013-10-12 17:11:00,
2013-10-12 13:13:00,74.5,61.1,30.05,NE,36,0.3,2.3,63,0.00,SCT,,0.00,WeatherDisplay:10.37,2013-10-12 17:13:00,
2013-10-12 13:15:00,74.9,60.1,30.05,NE,36,0.0,1.1,60,0.00,SCT,,0.00,WeatherDisplay:10.37,2013-10-12 17:15:00,
2013-10-12 13:16:00,75.1,59.3,30.05,North,5,0.1,3.0,58,0.00,SCT,,0.00,WeatherDisplay:10.37,2013-10-12 17:16:00,
2013-10-12 13:17:00,75.2,58.4,30.05,NNW,336,1.4,3.5,56,0.00,SCT,,0.00,WeatherDisplay:10.37,2013-10-12 17:17:00,
2013-10-12 13:18:00,75.2,58.9,30.05,West,281,1.9,3.5,57,0.00,SCT,,0.00,WeatherDisplay:10.37,2013-10-12 17:18:00,
2013-10-12 13:20:00,75.3,59.5,30.05,West,273,0.0,3.5,58,0.00,SCT,,0.00,WeatherDisplay:10.37,2013-10-12 17:20:00,
2013-10-12 13:22:00,75.6,59.8,30.05,North,354,3.1,5.8,58,0.00,SCT,,0.00,WeatherDisplay:10.37,2013-10-12 17:22:00,
2013-10-12 13:23:00,75.6,57.3,30.05,NW,307,5.2,8.1,53,0.00,SCT,,0.00,WeatherDisplay:10.37,2013-10-12 17:23:00,
2013-10-12 13:25:00,75.5,58.2,30.05,NW,319,2.5,3.5,55,0.00,SCT,,0.00,WeatherDisplay:10.37,2013-10-12 17:25:00,
2013-10-12 13:26:00,75.6,58.8,30.05,NNW,343,2.6,3.5,56,0.00,SCT,,0.00,WeatherDisplay:10.37,2013-10-12 17:26:00,
2013-10-12 13:27:00,75.5,58.2,30.05,North,354,4.2,5.8,55,0.00,SCT,,0.00,WeatherDisplay:10.37,2013-10-12 17:27:00,
2013-10-12 13:29:00,75.5,58.2,30.05,North,352,4.3,5.0,55,0.00,SCT,,0.00,WeatherDisplay:10.37,2013-10-12 17:29:00,
2013-10-12 13:30:00,75.5,57.7,30.05,North,355,2.7,5.8,54,0.00,SCT,,0.00,WeatherDisplay:10.37,2013-10-12 17:30:00,
2013-10-12 13:31:00,75.5,58.7,30.05,North,355,0.0,5.8,56,0.00,SCT,,0.00,WeatherDisplay:10.37,2013-10-12 17:31:00,
2013-10-12 13:33:00,75.6,59.3,30.05,West,276,3.6,5.0,57,0.00,SCT,,0.00,WeatherDisplay:10.37,2013-10-12 17:33:00,
2013-10-12 13:34:00,75.7,58.4,30.05,WNW,288,4.2,5.8,55,0.00,SCT,,0.00,WeatherDisplay:10.37,2013-10-12 17:34:00,
2013-10-12 13:35:00,75.8,59.5,30.05,SW,216,1.3,4.6,57,0.00,SCT,,0.00,WeatherDisplay:10.37,2013-10-12 17:35:00,
2013-10-12 13:36:00,76.0,59.2,30.05,West,263,0.7,7.0,56,0.00,SCT,,0.00,WeatherDisplay:10.37,2013-10-12 17:36:00,
2013-10-12 13:38:00,76.1,59.8,30.05,NNW,337,2.1,4.6,57,0.00,SCT,,0.00,WeatherDisplay:10.37,2013-10-12 17:38:00,
2013-10-12 13:39:00,76.2,58.9,30.05,NW,323,0.6,4.6,55,0.00,SCT,,0.00,WeatherDisplay:10.37,2013-10-12 17:39:00,
2013-10-12 13:40:00,76.2,59.4,30.05,WNW,289,2.0,7.0,56,0.00,SCT,,0.00,WeatherDisplay:10.37,2013-10-12 17:40:00,
2013-10-12 13:41:00,76.1,58.8,30.05,NW,313,4.5,6.9,55,0.00,SCT,,0.00,WeatherDisplay:10.37,2013-10-12 17:41:00,
2013-10-12 13:44:00,76.2,59.4,30.05,NNW,336,5.4,7.0,56,0.00,SCT,,0.00,WeatherDisplay:10.37,2013-10-12 17:44:00,
2013-10-12 13:45:00,76.1,59.3,30.04,NNW,332,4.2,5.8,56,0.00,SCT,,0.00,WeatherDisplay:10.37,2013-10-12 17:45:00,
2013-10-12 13:47:00,76.1,59.3,30.04,North,351,1.7,6.0,56,0.00,SCT,,0.00,WeatherDisplay:10.37,2013-10-12 17:47:00,
2013-10-12 13:49:00,76.1,59.8,30.04,NNW,345,0.1,5.8,57,0.00,SCT,,0.00,WeatherDisplay:10.37,2013-10-12 17:49:00,
2013-10-12 13:50:00,76.3,61.4,30.04,East,97,1.5,4.6,60,0.00,SCT,,0.00,WeatherDisplay:10.37,2013-10-12 17:50:00,
2013-10-12 13:51:00,76.4,61.5,30.04,ESE,111,1.5,4.6,60,0.00,SCT,,0.00,WeatherDisplay:10.37,2013-10-12 17:51:00,
2013-10-12 13:52:00,76.7,61.3,30.04,ESE,111,0.0,3.5,59,0.00,SCT,,0.00,WeatherDisplay:10.37,2013-10-12 17:52:00,
2013-10-12 13:54:00,77.0,61.1,30.04,South,183,0.0,3.5,58,0.00,SCT,,0.00,WeatherDisplay:10.37,2013-10-12 17:54:00,
2013-10-12 13:55:00,77.2,60.3,30.04,WSW,257,6.3,7.0,56,0.00,SCT,,0.00,WeatherDisplay:10.37,2013-10-12 17:55:00,
2013-10-12 13:56:00,77.1,59.7,30.04,WNW,296,5.9,9.2,55,0.00,SCT,,0.00,WeatherDisplay:10.37,2013-10-12 17:56:00,
2013-10-12 13:57:00,76.9,60.5,30.04,WNW,286,3.2,5.8,57,0.00,SCT,,0.00,WeatherDisplay:10.37,2013-10-12 17:57:00,
2013-10-12 13:58:00,76.9,59.5,30.04,NW,319,3.0,6.9,55,0.00,SCT,,0.00,WeatherDisplay:10.37,2013-10-12 17:58:00,
2013-10-12 13:59:00,76.8,59.4,30.04,NNW,335,3.2,5.8,55,0.00,SCT,,0.00,WeatherDisplay:10.37,2013-10-12 17:59:00,
2013-10-12 14:00:00,76.7,60.3,30.04,North,359,0.9,4.6,57,0.00,SCT,,0.00,WeatherDisplay:10.37,2013-10-12 18:00:00,
2013-10-12 14:01:00,76.8,60.9,30.04,North,7,1.2,3.5,58,0.00,SCT,,0.00,WeatherDisplay:10.37,2013-10-12 18:01:00,
2013-10-12 14:03:00,76.8,60.4,30.04,North,355,0.3,2.3,57,0.00,SCT,,0.00,WeatherDisplay:10.37,2013-10-12 18:03:00,
2013-10-12 14:04:00,76.8,59.9,30.04,NW,313,0.9,3.5,56,0.00,SCT,,0.00,WeatherDisplay:10.37,2013-10-12 18:04:00,
2013-10-12 14:06:00,76.7,59.8,30.04,NW,308,1.4,3.5,56,0.00,SCT,,0.00,WeatherDisplay:10.37,2013-10-12 18:06:00,
2013-10-12 14:07:00,76.5,59.6,30.04,NW,318,0.4,2.3,56,0.00,SCT,,0.00,WeatherDisplay:10.37,2013-10-12 18:07:00,
2013-10-12 14:08:00,76.3,59.9,30.03,North,355,0.8,2.0,57,0.00,SCT,,0.00,WeatherDisplay:10.37,2013-10-12 18:08:00,
2013-10-12 14:09:00,76.4,60.0,30.04,North,355,0.0,3.5,57,0.00,SCT,,0.00,WeatherDisplay:10.37,2013-10-12 18:09:00,
2013-10-12 14:10:00,76.5,60.1,30.03,North,355,0.0,0.0,57,0.00,SCT,,0.00,WeatherDisplay:10.37,2013-10-12 18:10:00,
2013-10-12 14:11:00,76.7,60.8,30.04,North,355,0.0,0.0,58,0.00,SCT,,0.00,WeatherDisplay:10.37,2013-10-12 18:11:00,
2013-10-12 14:13:00,77.0,60.1,30.03,North,355,0.0,1.1,56,0.00,SCT,,0.00,WeatherDisplay:10.37,2013-10-12 18:13:00,
2013-10-12 14:14:00,77.1,60.7,30.03,North,355,0.0,0.0,57,0.00,SCT,,0.00,WeatherDisplay:10.37,2013-10-12 18:14:00,
2013-10-12 14:15:00,77.2,60.8,30.03,NW,310,0.4,3.0,57,0.00,SCT,,0.00,WeatherDisplay:10.37,2013-10-12 18:15:00,
2013-10-12 14:16:00,77.3,59.9,30.03,WNW,296,4.3,6.9,55,0.00,SCT,,0.00,WeatherDisplay:10.37,2013-10-12 18:16:00,
2013-10-12 14:18:00,77.3,59.9,30.03,West,260,3.0,3.5,55,0.00,SCT,,0.00,WeatherDisplay:10.37,2013-10-12 18:18:00,
2013-10-12 14:19:00,77.3,59.9,30.03,West,259,2.3,4.6,55,0.00,SCT,,0.00,WeatherDisplay:10.37,2013-10-12 18:19:00,
2013-10-12 14:20:00,77.3,59.4,30.03,NNW,343,3.6,5.8,54,0.00,SCT,,0.00,WeatherDisplay:10.37,2013-10-12 18:20:00,
2013-10-12 14:21:00,77.3,60.4,30.03,WNW,290,2.8,4.6,56,0.00,SCT,,0.00,WeatherDisplay:10.37,2013-10-12 18:21:00,
2013-10-12 14:23:00,77.4,60.0,30.03,WNW,293,2.4,8.1,55,0.00,SCT,,0.00,WeatherDisplay:10.37,2013-10-12 18:23:00,
2013-10-12 14:24:00,77.4,60.5,30.03,WNW,290,2.3,4.0,56,0.00,SCT,,0.00,WeatherDisplay:10.37,2013-10-12 18:24:00,
2013-10-12 14:25:00,77.5,60.1,30.03,West,275,2.0,4.6,55,0.00,SCT,,0.00,WeatherDisplay:10.37,2013-10-12 18:25:00,
2013-10-12 14:26:00,77.5,60.1,30.03,West,275,0.1,3.5,55,0.00,SCT,,0.00,WeatherDisplay:10.37,2013-10-12 18:26:00,
2013-10-12 14:29:00,77.8,59.3,30.03,North,355,4.2,9.2,53,0.00,SCT,,0.00,WeatherDisplay:10.37,2013-10-12 18:29:00,
2013-10-12 14:31:00,77.9,58.9,30.03,North,354,1.4,5.0,52,0.00,SCT,,0.00,WeatherDisplay:10.37,2013-10-12 18:31:00,
2013-10-12 14:32:00,78.0,60.0,30.03,North,352,3.8,7.0,54,0.00,SCT,,0.00,WeatherDisplay:10.37,2013-10-12 18:32:00,
2013-10-12 14:34:00,77.9,60.4,30.03,NW,311,2.4,6.9,55,0.00,SCT,,0.00,WeatherDisplay:10.37,2013-10-12 18:34:00,
2013-10-12 14:35:00,77.9,58.9,30.03,NW,319,2.3,3.5,52,0.00,SCT,,0.00,WeatherDisplay:10.37,2013-10-12 18:35:00,
2013-10-12 14:36:00,77.9,58.9,30.03,NNE,14,3.2,6.9,52,0.00,SCT,,0.00,WeatherDisplay:10.37,2013-10-12 18:36:00,
2013-10-12 14:37:00,77.9,59.9,30.03,NNE,26,1.3,4.6,54,0.00,SCT,,0.00,WeatherDisplay:10.37,2013-10-12 18:37:00,
2013-10-12 14:39:00,78.2,60.2,30.03,NNW,346,2.7,9.0,54,0.00,SCT,,0.00,WeatherDisplay:10.37,2013-10-12 18:39:00,
2013-10-12 14:40:00,78.2,58.6,30.03,North,356,4.5,9.2,51,0.00,SCT,,0.00,WeatherDisplay:10.37,2013-10-12 18:40:00,
2013-10-12 14:41:00,78.1,59.0,30.03,North,355,1.3,4.6,52,0.00,SCT,,0.00,WeatherDisplay:10.37,2013-10-12 18:41:00,
2013-10-12 14:42:00,78.2,59.7,30.03,North,355,0.9,3.5,53,0.00,SCT,,0.00,WeatherDisplay:10.37,2013-10-12 18:42:00,
2013-10-12 14:45:00,78.4,59.3,30.03,NW,315,2.6,5.8,52,0.00,SCT,,0.00,WeatherDisplay:10.37,2013-10-12 18:45:00,
2013-10-12 14:46:00,78.4,58.8,30.03,North,353,3.2,5.8,51,0.00,SCT,,0.00,WeatherDisplay:10.37,2013-10-12 18:46:00,
2013-10-12 14:47:00,78.4,59.9,30.03,NNW,333,2.3,4.6,53,0.00,SCT,,0.00,WeatherDisplay:10.37,2013-10-12 18:47:00,
2013-10-12 14:50:00,78.2,58.0,30.03,NNW,336,1.8,5.0,50,0.00,SCT,,0.00,WeatherDisplay:10.37,2013-10-12 18:50:00,
2013-10-12 14:52:00,78.1,58.5,30.03,North,353,6.4,6.9,51,0.00,SCT,,0.00,WeatherDisplay:10.37,2013-10-12 18:52:00,
2013-10-12 14:53:00,78.0,58.4,30.03,North,352,7.0,9.2,51,0.00,SCT,,0.00,WeatherDisplay:10.37,2013-10-12 18:53:00,
2013-10-12 14:56:00,78.2,59.7,30.03,NNE,20,0.2,1.1,53,0.00,SCT,,0.00,WeatherDisplay:10.37,2013-10-12 18:56:00,
2013-10-12 14:57:00,78.3,59.8,30.03,NNE,20,0.2,1.1,53,0.00,SCT,,0.00,WeatherDisplay:10.37,2013-10-12 18:57:00,
2013-10-12 14:58:00,78.7,60.1,30.03,NNE,20,0.0,0.0,53,0.00,SCT,,0.00,WeatherDisplay:10.37,2013-10-12 18:58:00,
2013-10-12 15:01:00,79.1,79.1,30.03,WNW,282,4.9,6.0,100,0.00,SCT,,0.00,WeatherDisplay:10.37,2013-10-12 19:01:00,
2013-10-12 15:02:00,79.0,79.0,30.03,West,271,4.3,6.9,100,0.00,SCT,,0.00,WeatherDisplay:10.37,2013-10-12 19:02:00,
2013-10-12 15:03:00,79.1,79.1,30.03,NNW,338,3.0,5.8,100,0.00,SCT,,0.00,WeatherDisplay:10.37,2013-10-12 19:03:00,
2013-10-12 15:06:00,79.2,79.2,30.03,NNW,340,4.9,5.8,100,0.00,SCT,,0.00,WeatherDisplay:10.37,2013-10-12 19:06:00,
2013-10-12 15:07:00,79.1,79.1,30.03,NNW,333,3.8,6.9,100,0.00,SCT,,0.00,WeatherDisplay:10.37,2013-10-12 19:07:00,
2013-10-12 15:08:00,79.1,79.1,30.03,NW,309,4.0,6.9,100,0.00,SCT,,0.00,WeatherDisplay:10.37,2013-10-12 19:08:00,
2013-10-12 15:12:00,79.2,79.2,30.03,West,271,1.2,4.6,100,0.00,SCT,,0.00,WeatherDisplay:10.37,2013-10-12 19:12:00,
2013-10-12 15:13:00,79.2,79.2,30.03,West,281,0.1,1.1,100,0.00,SCT,,0.00,WeatherDisplay:10.37,2013-10-12 19:13:00,
2013-10-12 15:14:00,79.3,79.3,30.03,WSW,247,1.0,3.5,100,0.00,SCT,,0.00,WeatherDisplay:10.37,2013-10-12 19:14:00,
2013-10-12 15:17:00,79.4,79.4,30.03,West,272,6.4,9.2,100,0.00,SCT,,0.00,WeatherDisplay:10.37,2013-10-12 19:17:00,
2013-10-12 15:18:00,79.2,79.2,30.03,WNW,294,4.2,7.0,100,0.00,SCT,,0.00,WeatherDisplay:10.37,2013-10-12 19:18:00,
2013-10-12 15:19:00,79.1,79.1,30.03,West,259,5.5,6.9,100,0.00,SCT,,0.00,WeatherDisplay:10.37,2013-10-12 19:19:00,
2013-10-12 15:22:00,79.0,79.0,30.03,NNW,336,2.3,5.0,100,0.00,SCT,,0.00,WeatherDisplay:10.37,2013-10-12 19:22:00,
2013-10-12 15:23:00,79.0,79.0,30.03,NNW,340,4.3,7.0,100,0.00,SCT,,0.00,WeatherDisplay:10.37,2013-10-12 19:23:00,
2013-10-12 15:24:00,78.9,78.9,30.03,North,357,5.3,9.2,100,0.00,SCT,,0.00,WeatherDisplay:10.37,2013-10-12 19:24:00,
2013-10-12 15:28:00,78.7,78.7,30.03,NW,324,4.4,5.8,100,0.00,SCT,,0.00,WeatherDisplay:10.37,2013-10-12 19:28:00,
2013-10-12 15:29:00,78.8,78.8,30.04,NNW,338,2.1,4.0,100,0.00,SCT,,0.00,WeatherDisplay:10.37,2013-10-12 19:29:00,
2013-10-12 15:33:00,79.1,79.1,30.04,North,5,1.4,3.5,100,0.00,SCT,,0.00,WeatherDisplay:10.37,2013-10-12 19:33:00,
2013-10-12 15:34:00,79.2,79.2,30.03,NE,37,1.5,5.8,100,0.00,SCT,,0.00,WeatherDisplay:10.37,2013-10-12 19:34:00,
2013-10-12 15:35:00,79.2,79.2,30.03,NE,39,0.9,5.8,100,0.00,SCT,,0.00,WeatherDisplay:10.37,2013-10-12 19:35:00,
2013-10-12 15:38:00,79.5,79.5,30.03,NNW,333,4.4,8.1,100,0.00,SCT,,0.00,WeatherDisplay:10.37,2013-10-12 19:38:00,
2013-10-12 15:39:00,79.5,79.5,30.03,WNW,301,2.6,8.1,100,0.00,SCT,,0.00,WeatherDisplay:10.37,2013-10-12 19:39:00,
2013-10-12 15:42:00,79.5,79.5,30.04,NW,325,0.0,0.0,100,0.00,SCT,,0.00,WeatherDisplay:10.37,2013-10-12 19:42:00,
2013-10-12 15:43:00,79.7,79.7,30.03,NNE,15,0.3,2.0,100,0.00,SCT,,0.00,WeatherDisplay:10.37,2013-10-12 19:43:00,
2013-10-12 15:44:00,79.8,79.8,30.03,NNE,26,0.3,1.1,100,0.00,SCT,,0.00,WeatherDisplay:10.37,2013-10-12 19:44:00,
2013-10-12 15:47:00,79.7,79.7,30.03,North,350,6.1,8.1,100,0.00,SCT,,0.00,WeatherDisplay:10.37,2013-10-12 19:47:00,
2013-10-12 15:48:00,79.5,79.5,30.03,North,352,4.7,9.2,100,0.00,SCT,,0.00,WeatherDisplay:10.37,2013-10-12 19:48:00,
2013-10-12 15:49:00,79.4,79.4,30.03,North,355,4.2,6.9,100,0.00,SCT,,0.00,WeatherDisplay:10.37,2013-10-12 19:49:00,
2013-10-12 15:50:00,79.3,79.3,30.03,North,358,4.0,4.6,100,0.00,SCT,,0.00,WeatherDisplay:10.37,2013-10-12 19:50:00,
2013-10-12 15:52:00,79.3,79.3,30.03,NNE,24,3.9,9.2,100,0.00,SCT,,0.00,WeatherDisplay:10.37,2013-10-12 19:52:00,
2013-10-12 15:53:00,79.3,79.3,30.03,NNE,24,0.0,3.5,100,0.00,SCT,,0.00,WeatherDisplay:10.37,2013-10-12 19:53:00,
2013-10-12 15:54:00,79.4,79.4,30.03,NNE,24,0.0,3.5,100,0.00,SCT,,0.00,WeatherDisplay:10.37,2013-10-12 19:54:00,
2013-10-12 15:55:00,79.6,79.6,30.03,NNE,23,0.0,1.1,100,0.00,SCT,,0.00,WeatherDisplay:10.37,2013-10-12 19:55:00,
2013-10-12 15:56:00,79.8,79.8,30.03,NNE,23,0.0,1.1,100,0.00,SCT,,0.00,WeatherDisplay:10.37,2013-10-12 19:56:00,
2013-10-12 15:57:00,79.9,79.9,30.03,North,355,2.3,2.3,100,0.00,SCT,,0.00,WeatherDisplay:10.37,2013-10-12 19:57:00,
2013-10-12 15:58:00,79.9,79.9,30.03,North,357,3.4,6.0,100,0.00,SCT,,0.00,WeatherDisplay:10.37,2013-10-12 19:58:00,
2013-10-12 15:59:00,79.9,79.9,30.03,NNW,341,5.2,8.1,100,0.00,SCT,,0.00,WeatherDisplay:10.37,2013-10-12 19:59:00,
2013-10-12 16:00:00,79.8,79.8,30.03,NW,325,2.1,6.9,100,0.00,SCT,,0.00,WeatherDisplay:10.37,2013-10-12 20:00:00,
2013-10-12 16:02:00,79.9,79.9,30.03,ENE,66,1.3,4.0,100,0.00,SCT,,0.00,WeatherDisplay:10.37,2013-10-12 20:02:00,
2013-10-12 16:03:00,80.1,80.1,30.03,North,355,1.8,5.8,100,0.00,SCT,,0.00,WeatherDisplay:10.37,2013-10-12 20:03:00,
2013-10-12 16:04:00,80.1,80.1,30.03,North,2,0.5,3.5,100,0.00,SCT,,0.00,WeatherDisplay:10.37,2013-10-12 20:04:00,
2013-10-12 16:05:00,80.2,80.2,30.03,NE,52,0.6,3.5,100,0.00,SCT,,0.00,WeatherDisplay:10.37,2013-10-12 20:05:00,
2013-10-12 16:07:00,80.2,58.1,30.03,North,355,4.8,5.8,47,0.00,SCT,,0.00,WeatherDisplay:10.37,2013-10-12 20:07:00,
2013-10-12 16:08:00,80.2,58.1,30.03,NNE,12,4.1,6.9,47,0.00,SCT,,0.00,WeatherDisplay:10.37,2013-10-12 20:08:00,
2013-10-12 16:09:00,80.2,59.3,30.03,NNW,348,3.9,6.9,49,0.00,SCT,,0.00,WeatherDisplay:10.37,2013-10-12 20:09:00,
2013-10-12 16:11:00,80.1,58.0,30.03,North,353,7.7,11.5,47,0.00,SCT,,0.00,WeatherDisplay:10.37,2013-10-12 20:11:00,
2013-10-12 16:12:00,79.9,57.3,30.03,NNW,338,6.7,8.1,46,0.00,SCT,,0.00,WeatherDisplay:10.37,2013-10-12 20:12:00,
2013-10-12 16:13:00,79.8,58.4,30.03,North,350,5.6,8.1,48,0.00,SCT,,0.00,WeatherDisplay:10.37,2013-10-12 20:13:00,
2013-10-12 16:14:00,79.8,57.8,30.03,North,351,6.2,8.1,47,0.00,SCT,,0.00,WeatherDisplay:10.37,2013-10-12 20:14:00,
2013-10-12 16:17:00,79.5,58.1,30.03,NNW,348,6.7,9.2,48,0.00,SCT,,0.00,WeatherDisplay:10.37,2013-10-12 20:17:00,
2013-10-12 16:19:00,79.4,58.0,30.03,North,357,3.7,5.8,48,0.00,SCT,,0.00,WeatherDisplay:10.37,2013-10-12 20:19:00,
2013-10-12 16:20:00,79.4,58.6,30.03,NW,326,4.2,5.8,49,0.00,SCT,,0.00,WeatherDisplay:10.37,2013-10-12 20:20:00,
2013-10-12 16:22:00,79.4,59.7,30.03,NE,38,0.7,4.6,51,0.00,SCT,,0.00,WeatherDisplay:10.37,2013-10-12 20:22:00,
2013-10-12 16:24:00,79.5,59.2,30.03,NE,55,0.9,2.3,50,0.00,SCT,,0.00,WeatherDisplay:10.37,2013-10-12 20:24:00,
2013-10-12 16:25:00,79.7,60.5,30.03,NE,55,1.0,3.5,52,0.00,SCT,,0.00,WeatherDisplay:10.37,2013-10-12 20:25:00,
2013-10-12 16:28:00,79.9,58.5,30.03,NNW,339,2.3,6.9,48,0.00,SCT,,0.00,WeatherDisplay:10.37,2013-10-12 20:28:00,
2013-10-12 16:29:00,79.8,58.4,30.03,NNW,341,3.6,6.9,48,0.00,SCT,,0.00,WeatherDisplay:10.37,2013-10-12 20:29:00,
2013-10-12 16:30:00,79.8,58.4,30.03,North,349,3.0,9.0,48,0.00,SCT,,0.00,WeatherDisplay:10.37,2013-10-12 20:30:00,
2013-10-12 16:33:00,79.6,57.6,30.03,NW,317,3.7,4.6,47,0.00,SCT,,0.00,WeatherDisplay:10.37,2013-10-12 20:33:00,
2013-10-12 16:34:00,79.5,58.1,30.03,NW,316,2.2,4.6,48,0.00,SCT,,0.00,WeatherDisplay:10.37,2013-10-12 20:34:00,
2013-10-12 16:35:00,79.5,58.7,30.03,NW,326,0.9,8.0,49,0.00,SCT,,0.00,WeatherDisplay:10.37,2013-10-12 20:35:00,
2013-10-12 16:36:00,79.5,58.1,30.03,NNW,332,5.0,8.1,48,0.00,SCT,,0.00,WeatherDisplay:10.37,2013-10-12 20:36:00,
2013-10-12 16:38:00,79.6,58.2,30.03,NNW,342,4.3,8.1,48,0.00,SCT,,0.00,WeatherDisplay:10.37,2013-10-12 20:38:00,
2013-10-12 16:39:00,79.5,58.7,30.03,NW,319,3.0,4.6,49,0.00,SCT,,0.00,WeatherDisplay:10.37,2013-10-12 20:39:00,
2013-10-12 16:40:00,79.4,58.0,30.03,NW,308,3.1,4.6,48,0.00,SCT,,0.00,WeatherDisplay:10.37,2013-10-12 20:40:00,
2013-10-12 16:41:00,79.3,57.9,30.03,North,355,2.3,4.6,48,0.00,SCT,,0.00,WeatherDisplay:10.37,2013-10-12 20:41:00,
2013-10-12 16:44:00,79.2,58.4,30.03,NW,305,2.6,6.9,49,0.00,SCT,,0.00,WeatherDisplay:10.37,2013-10-12 20:44:00,
2013-10-12 16:45:00,79.0,58.2,30.03,WNW,295,0.6,3.5,49,0.00,SCT,,0.00,WeatherDisplay:10.37,2013-10-12 20:45:00,
2013-10-12 16:46:00,78.9,58.7,30.03,WNW,295,0.0,3.5,50,0.00,SCT,,0.00,WeatherDisplay:10.37,2013-10-12 20:46:00,
2013-10-12 16:49:00,78.5,58.3,30.03,WNW,293,1.5,3.5,50,0.00,SCT,,0.00,WeatherDisplay:10.37,2013-10-12 20:49:00,
2013-10-12 16:50:00,78.3,58.1,30.04,WNW,293,0.1,3.5,50,0.00,SCT,,0.00,WeatherDisplay:10.37,2013-10-12 20:50:00,
2013-10-12 16:51:00,78.3,58.1,30.04,WNW,292,0.0,3.5,50,0.00,SCT,,0.00,WeatherDisplay:10.37,2013-10-12 20:51:00,
2013-10-12 16:52:00,78.2,58.0,30.04,NNW,328,3.2,3.5,50,0.00,SCT,,0.00,WeatherDisplay:10.37,2013-10-12 20:52:00,
2013-10-12 16:54:00,78.5,58.9,30.04,NNW,347,0.2,2.0,51,0.00,SCT,,0.00,WeatherDisplay:10.37,2013-10-12 20:54:00,
2013-10-12 16:55:00,78.5,58.3,30.04,WNW,300,1.3,3.5,50,0.00,SCT,,0.00,WeatherDisplay:10.37,2013-10-12 20:55:00,
2013-10-12 16:56:00,78.5,58.3,30.04,WNW,300,0.3,2.3,50,0.00,SCT,,0.00,WeatherDisplay:10.37,2013-10-12 20:56:00,
2013-10-12 16:57:00,78.6,58.4,30.04,NW,322,1.2,4.0,50,0.00,SCT,,0.00,WeatherDisplay:10.37,2013-10-12 20:57:00,
2013-10-12 17:00:00,78.9,59.2,30.03,North,350,0.0,0.0,51,0.00,SCT,,0.00,WeatherDisplay:10.37,2013-10-12 21:00:00,
2013-10-12 17:01:00,79.2,60.1,30.04,North,350,0.0,0.0,52,0.00,SCT,,0.00,WeatherDisplay:10.37,2013-10-12 21:01:00,
2013-10-12 17:02:00,79.3,59.0,30.04,North,350,0.2,4.0,50,0.00,BKN,,0.00,WeatherDisplay:10.37,2013-10-12 21:02:00,
2013-10-12 17:03:00,79.3,59.0,30.04,North,350,0.0,4.6,50,0.00,BKN,,0.00,WeatherDisplay:10.37,2013-10-12 21:03:00,
2013-10-12 17:05:00,79.2,57.8,30.03,NNW,337,2.6,6.9,48,0.00,BKN,,0.00,WeatherDisplay:10.37,2013-10-12 21:05:00,
2013-10-12 17:06:00,79.1,58.9,30.04,NNW,327,3.5,6.9,50,0.00,BKN,,0.00,WeatherDisplay:10.37,2013-10-12 21:06:00,
2013-10-12 17:07:00,79.0,57.6,30.04,NNW,328,0.1,5.8,48,0.00,BKN,,0.00,WeatherDisplay:10.37,2013-10-12 21:07:00,
2013-10-12 17:08:00,79.1,58.3,30.04,NNW,328,0.1,0.0,49,0.00,BKN,,0.00,WeatherDisplay:10.37,2013-10-12 21:08:00,
2013-10-12 17:10:00,79.2,59.0,30.04,North,351,1.8,5.0,50,0.00,BKN,,0.00,WeatherDisplay:10.37,2013-10-12 21:10:00,
2013-10-12 17:11:00,79.3,59.0,30.04,North,349,2.0,5.8,50,0.00,BKN,,0.00,WeatherDisplay:10.37,2013-10-12 21:11:00,
2013-10-12 17:12:00,79.3,58.5,30.04,NNW,336,3.6,5.8,49,0.00,BKN,,0.00,WeatherDisplay:10.37,2013-10-12 21:12:00,
2013-10-12 17:14:00,79.4,58.6,30.04,North,355,0.3,3.5,49,0.00,BKN,,0.00,WeatherDisplay:10.37,2013-10-12 21:14:00,
2013-10-12 17:15:00,79.5,58.7,30.04,NNW,334,1.2,3.5,49,0.00,BKN,,0.00,WeatherDisplay:10.37,2013-10-12 21:15:00,
2013-10-12 17:16:00,79.5,59.2,30.04,NNW,334,0.1,3.5,50,0.00,BKN,,0.00,WeatherDisplay:10.37,2013-10-12 21:16:00,
2013-10-12 17:17:00,79.5,59.2,30.04,NW,312,0.0,1.1,50,0.00,BKN,,0.00,WeatherDisplay:10.37,2013-10-12 21:17:00,
2013-10-12 17:19:00,79.5,59.8,30.04,WNW,300,0.0,0.0,51,0.00,BKN,,0.00,WeatherDisplay:10.37,2013-10-12 21:19:00,
2013-10-12 17:20:00,79.6,59.9,30.04,NW,323,0.0,1.0,51,0.00,BKN,,0.00,WeatherDisplay:10.37,2013-10-12 21:20:00,
2013-10-12 17:21:00,79.7,59.4,30.04,North,355,1.4,3.5,50,0.00,BKN,,0.00,WeatherDisplay:10.37,2013-10-12 21:21:00,
2013-10-12 17:22:00,79.7,59.4,30.04,NNW,344,2.4,4.6,50,0.00,BKN,,0.00,WeatherDisplay:10.37,2013-10-12 21:22:00,
2013-10-12 17:23:00,79.7,58.8,30.04,North,357,1.9,4.6,49,0.00,BKN,,0.00,WeatherDisplay:10.37,2013-10-12 21:23:00,
2013-10-12 17:24:00,79.8,58.9,30.04,North,353,1.5,4.6,49,0.00,BKN,,0.00,WeatherDisplay:10.37,2013-10-12 21:24:00,
2013-10-12 17:26:00,79.9,59.6,30.04,North,9,2.9,4.6,50,0.00,BKN,,0.00,WeatherDisplay:10.37,2013-10-12 21:26:00,
2013-10-12 17:27:00,79.9,59.0,30.04,NNW,340,4.7,6.9,49,0.00,BKN,,0.00,WeatherDisplay:10.37,2013-10-12 21:27:00,
2013-10-12 17:28:00,79.7,58.3,30.04,North,357,6.0,8.1,48,0.00,BKN,,0.00,WeatherDisplay:10.37,2013-10-12 21:28:00,
2013-10-12 17:30:00,79.5,58.7,30.04,North,355,2.3,5.8,49,0.00,BKN,,0.00,WeatherDisplay:10.37,2013-10-12 21:30:00,
2013-10-12 17:31:00,79.4,58.0,30.04,NNW,338,5.6,8.1,48,0.00,BKN,,0.00,WeatherDisplay:10.37,2013-10-12 21:31:00,
2013-10-12 17:32:00,79.2,58.4,30.04,NNW,345,3.6,5.8,49,0.00,BKN,,0.00,WeatherDisplay:10.37,2013-10-12 21:32:00,
2013-10-12 17:33:00,79.1,58.9,30.04,NNW,346,0.3,3.5,50,0.00,BKN,,0.00,WeatherDisplay:10.37,2013-10-12 21:33:00,
2013-10-12 17:35:00,78.9,60.3,30.04,NNW,346,0.1,3.0,53,0.00,BKN,,0.00,WeatherDisplay:10.37,2013-10-12 21:35:00,
2013-10-12 17:36:00,78.8,59.1,30.04,NNW,347,0.8,4.6,51,0.00,BKN,,0.00,WeatherDisplay:10.37,2013-10-12 21:36:00,
2013-10-12 17:37:00,78.7,59.0,30.04,North,354,1.3,3.5,51,0.00,BKN,,0.00,WeatherDisplay:10.37,2013-10-12 21:37:00,
2013-10-12 17:38:00,78.6,59.0,30.04,North,355,1.4,3.5,51,0.00,BKN,,0.00,WeatherDisplay:10.37,2013-10-12 21:38:00,
2013-10-12 17:40:00,78.6,59.5,30.04,North,358,0.2,2.0,52,0.00,BKN,,0.00,WeatherDisplay:10.37,2013-10-12 21:40:00,
2013-10-12 17:41:00,78.5,59.4,30.04,North,8,0.8,3.5,52,0.00,BKN,,0.00,WeatherDisplay:10.37,2013-10-12 21:41:00,
2013-10-12 17:42:00,78.4,59.3,30.04,North,8,0.0,1.1,52,0.00,BKN,,0.00,WeatherDisplay:10.37,2013-10-12 21:42:00,
2013-10-12 17:43:00,78.4,59.9,30.04,North,8,0.0,0.0,53,0.00,BKN,,0.00,WeatherDisplay:10.37,2013-10-12 21:43:00,
2013-10-12 17:45:00,78.3,59.2,30.04,North,359,1.4,2.3,52,0.00,BKN,,0.00,WeatherDisplay:10.37,2013-10-12 21:45:00,
2013-10-12 17:46:00,78.2,59.1,30.04,North,359,0.4,3.5,52,0.00,BKN,,0.00,WeatherDisplay:10.37,2013-10-12 21:46:00,
2013-10-12 17:47:00,78.2,59.7,30.04,North,359,0.0,1.1,53,0.00,BKN,,0.00,WeatherDisplay:10.37,2013-10-12 21:47:00,
2013-10-12 17:48:00,78.2,61.2,30.04,North,359,0.0,1.1,56,0.00,BKN,,0.00,WeatherDisplay:10.37,2013-10-12 21:48:00,
2013-10-12 17:49:00,78.2,60.7,30.04,North,359,0.0,0.0,55,0.00,BKN,,0.00,WeatherDisplay:10.37,2013-10-12 21:49:00,
2013-10-12 17:51:00,78.2,61.2,30.04,North,359,0.0,0.0,56,0.00,BKN,,0.00,WeatherDisplay:10.37,2013-10-12 21:51:00,
2013-10-12 17:52:00,78.2,61.7,30.04,North,359,0.0,0.0,57,0.00,BKN,,0.00,WeatherDisplay:10.37,2013-10-12 21:52:00,
2013-10-12 17:54:00,78.0,61.5,30.04,North,359,0.0,0.0,57,0.00,BKN,,0.00,WeatherDisplay:10.37,2013-10-12 21:54:00,
2013-10-12 17:56:00,77.8,60.3,30.04,North,359,0.0,0.0,55,0.00,BKN,,0.00,WeatherDisplay:10.37,2013-10-12 21:56:00,
2013-10-12 17:57:00,77.7,60.8,30.04,North,359,0.0,0.0,56,0.00,BKN,,0.00,WeatherDisplay:10.37,2013-10-12 21:57:00,
2013-10-12 17:59:00,77.7,61.7,30.04,North,359,0.0,0.0,58,0.00,BKN,,0.00,WeatherDisplay:10.37,2013-10-12 21:59:00,
2013-10-12 18:00:00,77.6,61.7,30.04,North,359,0.0,0.0,58,0.00,BKN,,0.00,WeatherDisplay:10.37,2013-10-12 22:00:00,
2013-10-12 18:01:00,77.6,61.2,30.04,North,359,0.0,2.3,57,0.00,BKN,,0.00,WeatherDisplay:10.37,2013-10-12 22:01:00,
2013-10-12 18:02:00,77.6,60.2,30.04,North,358,0.8,3.5,55,0.00,BKN,,0.00,WeatherDisplay:10.37,2013-10-12 22:02:00,
2013-10-12 18:03:00,77.5,60.1,30.04,North,358,0.3,3.5,55,0.00,BKN,,0.00,WeatherDisplay:10.37,2013-10-12 22:03:00,
2013-10-12 18:04:00,77.5,61.1,30.04,North,358,0.0,0.0,57,0.00,BKN,,0.00,WeatherDisplay:10.37,2013-10-12 22:04:00,
2013-10-12 18:05:00,77.5,61.6,30.04,North,358,0.0,0.0,58,0.00,BKN,,0.00,WeatherDisplay:10.37,2013-10-12 22:05:00,
2013-10-12 18:07:00,77.4,61.0,30.04,North,358,0.0,0.0,57,0.00,BKN,,0.00,WeatherDisplay:10.37,2013-10-12 22:07:00,
2013-10-12 18:09:00,77.2,61.3,30.04,North,358,0.0,0.0,58,0.00,BKN,,0.00,WeatherDisplay:10.37,2013-10-12 22:09:00,
2013-10-12 18:10:00,77.0,60.6,30.04,North,358,0.0,0.0,57,0.00,BKN,,0.00,WeatherDisplay:10.37,2013-10-12 22:10:00,
2013-10-12 18:12:00,76.8,60.9,30.04,North,358,0.0,0.0,58,0.00,BKN,,0.00,WeatherDisplay:10.37,2013-10-12 22:12:00,
2013-10-12 18:13:00,76.8,60.9,30.04,North,358,0.0,1.1,58,0.00,BKN,,0.00,WeatherDisplay:10.37,2013-10-12 22:13:00,
2013-10-12 18:14:00,76.7,61.8,30.04,North,358,0.0,1.1,60,0.00,BKN,,0.00,WeatherDisplay:10.37,2013-10-12 22:14:00,
2013-10-12 18:15:00,76.5,61.1,30.04,North,358,0.0,0.0,59,0.00,BKN,,0.00,WeatherDisplay:10.37,2013-10-12 22:15:00,
2013-10-12 18:17:00,76.4,61.5,30.04,North,358,0.0,0.0,60,0.00,BKN,,0.00,WeatherDisplay:10.37,2013-10-12 22:17:00,
2013-10-12 18:18:00,76.4,61.5,30.04,North,358,0.0,0.0,60,0.00,BKN,,0.00,WeatherDisplay:10.37,2013-10-12 22:18:00,
2013-10-12 18:19:00,76.3,61.9,30.04,North,358,0.0,0.0,61,0.00,BKN,,0.00,WeatherDisplay:10.37,2013-10-12 22:19:00,
2013-10-12 18:20:00,76.2,61.8,30.04,North,358,0.0,0.0,61,0.00,BKN,,0.00,WeatherDisplay:10.37,2013-10-12 22:20:00,
2013-10-12 18:22:00,76.0,62.0,30.04,North,358,0.0,0.0,62,0.00,BKN,,0.00,WeatherDisplay:10.37,2013-10-12 22:22:00,
2013-10-12 18:23:00,76.0,62.0,30.04,North,358,0.0,0.0,62,0.00,BKN,,0.00,WeatherDisplay:10.37,2013-10-12 22:23:00,
2013-10-12 18:24:00,75.9,61.9,30.04,North,358,0.0,0.0,62,0.00,BKN,,0.00,WeatherDisplay:10.37,2013-10-12 22:24:00,
2013-10-12 18:25:00,75.8,61.8,30.05,North,358,0.0,0.0,62,0.00,BKN,,0.00,WeatherDisplay:10.37,2013-10-12 22:25:00,
2013-10-12 18:26:00,75.7,61.8,30.04,North,358,0.0,0.0,62,0.00,BKN,,0.00,WeatherDisplay:10.37,2013-10-12 22:26:00,
2013-10-12 18:28:00,75.5,62.0,30.05,North,358,0.0,0.0,63,0.00,BKN,,0.00,WeatherDisplay:10.37,2013-10-12 22:28:00,
2013-10-12 18:29:00,75.3,61.8,30.04,North,358,0.1,1.1,63,0.00,BKN,,0.00,WeatherDisplay:10.37,2013-10-12 22:29:00,
2013-10-12 18:30:00,75.3,61.8,30.05,North,358,0.0,0.0,63,0.00,BKN,,0.00,WeatherDisplay:10.37,2013-10-12 22:30:00,
2013-10-12 18:32:00,75.1,61.6,30.04,North,358,0.0,1.1,63,0.00,BKN,,0.00,WeatherDisplay:10.37,2013-10-12 22:32:00,
2013-10-12 18:33:00,75.0,61.5,30.05,North,358,0.0,0.0,63,0.00,BKN,,0.00,WeatherDisplay:10.37,2013-10-12 22:33:00,
2013-10-12 18:34:00,74.9,61.5,30.05,North,358,0.0,0.0,63,0.00,BKN,,0.00,WeatherDisplay:10.37,2013-10-12 22:34:00,
2013-10-12 18:35:00,74.8,61.8,30.05,North,358,0.0,0.0,64,0.00,BKN,,0.00,WeatherDisplay:10.37,2013-10-12 22:35:00,
2013-10-12 18:38:00,74.7,61.3,30.05,North,358,0.0,0.0,63,0.00,BKN,,0.00,WeatherDisplay:10.37,2013-10-12 22:38:00,
2013-10-12 18:39:00,74.6,61.6,30.05,North,358,0.0,0.0,64,0.00,BKN,,0.00,WeatherDisplay:10.37,2013-10-12 22:39:00,
2013-10-12 18:41:00,74.4,61.0,30.05,North,358,0.0,0.0,63,0.00,BKN,,0.00,WeatherDisplay:10.37,2013-10-12 22:41:00,
2013-10-12 18:43:00,74.3,61.3,30.04,North,358,0.0,0.0,64,0.00,BKN,,0.00,WeatherDisplay:10.37,2013-10-12 22:43:00,
2013-10-12 18:45:00,74.2,61.2,30.04,North,358,0.0,0.0,64,0.00,BKN,,0.00,WeatherDisplay:10.37,2013-10-12 22:45:00,
2013-10-12 18:47:00,74.1,61.1,30.05,North,358,0.0,0.0,64,0.00,BKN,,0.00,WeatherDisplay:10.37,2013-10-12 22:47:00,
2013-10-12 18:48:00,74.0,61.0,30.04,North,358,0.0,0.0,64,0.00,BKN,,0.00,WeatherDisplay:10.37,2013-10-12 22:48:00,
2013-10-12 18:50:00,73.9,61.0,30.04,North,358,0.0,0.0,64,0.00,BKN,,0.00,WeatherDisplay:10.37,2013-10-12 22:50:00,
2013-10-12 18:52:00,73.8,61.3,30.05,North,358,0.0,0.0,65,0.00,BKN,,0.00,WeatherDisplay:10.37,2013-10-12 22:52:00,
2013-10-12 18:53:00,73.7,61.2,30.05,North,358,0.0,0.0,65,0.00,BKN,,0.00,WeatherDisplay:10.37,2013-10-12 22:53:00,
2013-10-12 18:54:00,73.7,61.2,30.05,North,358,0.0,0.0,65,0.00,BKN,,0.00,WeatherDisplay:10.37,2013-10-12 22:54:00,
2013-10-12 18:55:00,73.6,61.1,30.04,North,358,0.0,0.0,65,0.00,BKN,,0.00,WeatherDisplay:10.37,2013-10-12 22:55:00,
2013-10-12 18:57:00,73.5,61.0,30.05,North,358,0.0,0.0,65,0.00,BKN,,0.00,WeatherDisplay:10.37,2013-10-12 22:57:00,
2013-10-12 18:58:00,73.4,60.9,30.05,North,358,0.0,0.0,65,0.00,BKN,,0.00,WeatherDisplay:10.37,2013-10-12 22:58:00,
2013-10-12 19:00:00,73.4,60.9,30.05,North,358,0.0,0.0,65,0.00,BKN,,0.00,WeatherDisplay:10.37,2013-10-12 23:00:00,
2013-10-12 19:02:00,73.3,61.3,30.05,North,358,0.0,0.0,66,0.00,BKN,,0.00,WeatherDisplay:10.37,2013-10-12 23:02:00,
2013-10-12 19:04:00,73.2,61.2,30.05,North,358,0.0,0.0,66,0.00,BKN,,0.00,WeatherDisplay:10.37,2013-10-12 23:04:00,
2013-10-12 19:05:00,73.1,61.1,30.05,North,358,0.0,0.0,66,0.00,BKN,,0.00,WeatherDisplay:10.37,2013-10-12 23:05:00,
2013-10-12 19:08:00,72.8,60.8,30.05,North,358,0.0,0.0,66,0.00,BKN,,0.00,WeatherDisplay:10.37,2013-10-12 23:08:00,
2013-10-12 19:09:00,72.8,60.8,30.05,North,358,0.0,0.0,66,0.00,BKN,,0.00,WeatherDisplay:10.37,2013-10-12 23:09:00,
2013-10-12 19:10:00,72.8,60.8,30.05,North,358,0.0,0.0,66,0.00,BKN,,0.00,WeatherDisplay:10.37,2013-10-12 23:10:00,
2013-10-12 19:11:00,72.7,60.7,30.05,North,358,0.0,0.0,66,0.00,BKN,,0.00,WeatherDisplay:10.37,2013-10-12 23:11:00,
2013-10-12 19:13:00,72.7,60.7,30.05,North,358,0.0,0.0,66,0.00,BKN,,0.00,WeatherDisplay:10.37,2013-10-12 23:13:00,
2013-10-12 19:14:00,72.6,61.0,30.05,North,358,0.0,0.0,67,0.00,BKN,,0.00,WeatherDisplay:10.37,2013-10-12 23:14:00,
2013-10-12 19:15:00,72.6,60.6,30.05,North,358,0.0,0.0,66,0.00,BKN,,0.00,WeatherDisplay:10.37,2013-10-12 23:15:00,
2013-10-12 19:16:00,72.6,61.0,30.05,North,358,0.0,0.0,67,0.00,BKN,,0.00,WeatherDisplay:10.37,2013-10-12 23:16:00,
2013-10-12 19:18:00,72.5,60.9,30.05,North,358,0.0,0.0,67,0.00,BKN,,0.00,WeatherDisplay:10.37,2013-10-12 23:18:00,
2013-10-12 19:19:00,72.4,60.8,30.05,North,358,0.0,0.0,67,0.00,BKN,,0.00,WeatherDisplay:10.37,2013-10-12 23:19:00,
2013-10-12 19:20:00,72.3,60.7,30.05,North,358,0.0,0.0,67,0.00,BKN,,0.00,WeatherDisplay:10.37,2013-10-12 23:20:00,
2013-10-12 19:21:00,72.3,60.7,30.05,North,358,0.0,0.0,67,0.00,BKN,,0.00,WeatherDisplay:10.37,2013-10-12 23:21:00,
2013-10-12 19:23:00,72.2,60.6,30.05,North,358,0.0,0.0,67,0.00,BKN,,0.00,WeatherDisplay:10.37,2013-10-12 23:23:00,
2013-10-12 19:24:00,72.1,60.5,30.05,North,358,0.0,0.0,67,0.00,BKN,,0.00,WeatherDisplay:10.37,2013-10-12 23:24:00,
2013-10-12 19:25:00,72.1,60.5,30.05,North,358,0.0,0.0,67,0.00,BKN,,0.00,WeatherDisplay:10.37,2013-10-12 23:25:00,
2013-10-12 19:26:00,72.0,60.4,30.05,North,358,0.0,0.0,67,0.00,BKN,,0.00,WeatherDisplay:10.37,2013-10-12 23:26:00,
2013-10-12 19:27:00,71.9,60.8,30.05,North,358,0.0,0.0,68,0.00,BKN,,0.00,WeatherDisplay:10.37,2013-10-12 23:27:00,
2013-10-12 19:29:00,71.8,60.7,30.05,North,358,0.0,0.0,68,0.00,BKN,,0.00,WeatherDisplay:10.37,2013-10-12 23:29:00,
2013-10-12 19:30:00,71.7,60.6,30.05,North,358,0.0,0.0,68,0.00,BKN,,0.00,WeatherDisplay:10.37,2013-10-12 23:30:00,
2013-10-12 19:31:00,71.7,60.6,30.05,North,358,0.0,0.0,68,0.00,BKN,,0.00,WeatherDisplay:10.37,2013-10-12 23:31:00,
2013-10-12 19:32:00,71.6,60.5,30.05,North,358,0.0,0.0,68,0.00,BKN,,0.00,WeatherDisplay:10.37,2013-10-12 23:32:00,
2013-10-12 19:34:00,71.5,60.4,30.05,North,358,0.0,0.0,68,0.00,BKN,,0.00,WeatherDisplay:10.37,2013-10-12 23:34:00,
2013-10-12 19:35:00,71.4,60.7,30.05,North,358,0.0,0.0,69,0.00,BKN,,0.00,WeatherDisplay:10.37,2013-10-12 23:35:00,
2013-10-12 19:36:00,71.4,60.3,30.05,North,358,0.0,0.0,68,0.00,BKN,,0.00,WeatherDisplay:10.37,2013-10-12 23:36:00,
2013-10-12 19:38:00,71.3,60.6,30.05,North,358,0.0,0.0,69,0.00,BKN,,0.00,WeatherDisplay:10.37,2013-10-12 23:38:00,
2013-10-12 19:39:00,71.2,60.5,30.05,North,358,0.0,0.0,69,0.00,BKN,,0.00,WeatherDisplay:10.37,2013-10-12 23:39:00,
2013-10-12 19:40:00,71.2,60.5,30.05,North,358,0.0,0.0,69,0.00,BKN,,0.00,WeatherDisplay:10.37,2013-10-12 23:40:00,
2013-10-12 19:41:00,71.1,60.4,30.05,North,358,0.0,0.0,69,0.00,BKN,,0.00,WeatherDisplay:10.37,2013-10-12 23:41:00,
2013-10-12 19:42:00,71.1,60.4,30.05,North,358,0.0,0.0,69,0.00,BKN,,0.00,WeatherDisplay:10.37,2013-10-12 23:42:00,
2013-10-12 19:43:00,71.0,60.3,30.05,North,358,0.0,0.0,69,0.00,BKN,,0.00,WeatherDisplay:10.37,2013-10-12 23:43:00,
2013-10-12 19:44:00,71.0,60.3,30.05,North,358,0.0,0.0,69,0.00,BKN,,0.00,WeatherDisplay:10.37,2013-10-12 23:44:00,
2013-10-12 19:45:00,71.0,60.3,30.05,North,358,0.0,0.0,69,0.00,BKN,,0.00,WeatherDisplay:10.37,2013-10-12 23:45:00,
2013-10-12 19:46:00,70.9,60.2,30.05,North,358,0.0,0.0,69,0.00,BKN,,0.00,WeatherDisplay:10.37,2013-10-12 23:46:00,
2013-10-12 19:47:00,70.9,60.2,30.04,North,358,0.0,0.0,69,0.00,BKN,,0.00,WeatherDisplay:10.37,2013-10-12 23:47:00,
2013-10-12 19:48:00,70.9,60.2,30.04,North,358,0.0,0.0,69,0.00,BKN,,0.00,WeatherDisplay:10.37,2013-10-12 23:48:00,
2013-10-12 19:50:00,70.8,60.5,30.05,North,358,0.0,0.0,70,0.00,BKN,,0.00,WeatherDisplay:10.37,2013-10-12 23:50:00,
2013-10-12 19:51:00,70.8,60.5,30.05,North,358,0.0,0.0,70,0.00,BKN,,0.00,WeatherDisplay:10.37,2013-10-12 23:51:00,
2013-10-12 19:52:00,70.8,60.5,30.05,North,358,0.0,0.0,70,0.00,BKN,,0.00,WeatherDisplay:10.37,2013-10-12 23:52:00,
2013-10-12 19:53:00,70.8,60.5,30.05,North,358,0.0,0.0,70,0.00,BKN,,0.00,WeatherDisplay:10.37,2013-10-12 23:53:00,
2013-10-12 19:55:00,70.7,60.4,30.05,North,358,0.0,0.0,70,0.00,BKN,,0.00,WeatherDisplay:10.37,2013-10-12 23:55:00,
2013-10-12 19:56:00,70.6,60.3,30.05,North,358,0.0,0.0,70,0.00,BKN,,0.00,WeatherDisplay:10.37,2013-10-12 23:56:00,
2013-10-12 19:57:00,70.5,60.2,30.05,North,358,0.0,0.0,70,0.00,BKN,,0.00,WeatherDisplay:10.37,2013-10-12 23:57:00,
2013-10-12 19:58:00,70.4,60.1,30.05,North,358,0.0,0.0,70,0.00,BKN,,0.00,WeatherDisplay:10.37,2013-10-12 23:58:00,
2013-10-12 19:59:00,70.4,60.1,30.05,North,358,0.0,0.0,70,0.00,BKN,,0.00,WeatherDisplay:10.37,2013-10-12 23:59:00,
2013-10-12 20:00:00,70.3,60.1,30.05,North,358,0.0,0.0,70,0.00,BKN,,0.00,WeatherDisplay:10.37,2013-10-13 00:00:00,
2013-10-12 20:01:00,70.3,60.1,30.05,North,358,0.0,0.0,70,0.00,BKN,,0.00,WeatherDisplay:10.37,2013-10-13 00:01:00,
2013-10-12 20:02:00,70.2,60.0,30.05,North,358,0.0,0.0,70,0.00,BKN,,0.00,WeatherDisplay:10.37,2013-10-13 00:02:00,
2013-10-12 20:04:00,70.2,60.4,30.05,North,358,0.0,0.0,71,0.00,BKN,,0.00,WeatherDisplay:10.37,2013-10-13 00:04:00,
2013-10-12 20:05:00,70.1,59.9,30.05,North,358,0.0,0.0,70,0.00,BKN,,0.00,WeatherDisplay:10.37,2013-10-13 00:05:00,
2013-10-12 20:06:00,70.1,59.9,30.05,North,358,0.0,0.0,70,0.00,BKN,,0.00,WeatherDisplay:10.37,2013-10-13 00:06:00,
2013-10-12 20:07:00,70.0,60.2,30.05,North,358,0.0,0.0,71,0.00,BKN,,0.00,WeatherDisplay:10.37,2013-10-13 00:07:00,
2013-10-12 20:09:00,70.0,59.8,30.05,North,358,0.0,0.0,70,0.00,BKN,,0.00,WeatherDisplay:10.37,2013-10-13 00:09:00,
2013-10-12 20:11:00,69.8,60.0,30.05,North,358,0.0,0.0,71,0.00,BKN,,0.00,WeatherDisplay:10.37,2013-10-13 00:11:00,
2013-10-12 20:12:00,69.8,60.0,30.05,North,358,0.0,0.0,71,0.00,BKN,,0.00,WeatherDisplay:10.37,2013-10-13 00:12:00,
2013-10-12 20:14:00,69.7,59.9,30.05,North,358,0.0,0.0,71,0.00,BKN,,0.00,WeatherDisplay:10.37,2013-10-13 00:14:00,
2013-10-12 20:15:00,69.6,59.8,30.04,North,358,0.0,0.0,71,0.00,BKN,,0.00,WeatherDisplay:10.37,2013-10-13 00:15:00,
2013-10-12 20:16:00,69.5,59.7,30.04,North,358,0.0,0.0,71,0.00,BKN,,0.00,WeatherDisplay:10.37,2013-10-13 00:16:00,
2013-10-12 20:17:00,69.4,59.6,30.04,North,358,0.0,0.0,71,0.00,BKN,,0.00,WeatherDisplay:10.37,2013-10-13 00:17:00,
2013-10-12 20:19:00,69.4,60.0,30.04,North,358,0.0,0.0,72,0.00,BKN,,0.00,WeatherDisplay:10.37,2013-10-13 00:19:00,
2013-10-12 20:21:00,69.4,60.0,30.05,North,358,0.0,0.0,72,0.00,BKN,,0.00,WeatherDisplay:10.37,2013-10-13 00:21:00,
2013-10-12 20:22:00,69.4,60.0,30.05,North,358,0.0,0.0,72,0.00,BKN,,0.00,WeatherDisplay:10.37,2013-10-13 00:22:00,
2013-10-12 20:24:00,69.4,60.0,30.04,North,358,0.0,0.0,72,0.00,BKN,,0.00,WeatherDisplay:10.37,2013-10-13 00:24:00,
2013-10-12 20:26:00,69.4,60.0,30.05,North,358,0.0,0.0,72,0.00,BKN,,0.00,WeatherDisplay:10.37,2013-10-13 00:26:00,
2013-10-12 20:27:00,69.4,60.0,30.04,North,358,0.0,0.0,72,0.00,BKN,,0.00,WeatherDisplay:10.37,2013-10-13 00:27:00,
2013-10-12 20:28:00,69.4,60.0,30.04,North,358,0.0,0.0,72,0.00,BKN,,0.00,WeatherDisplay:10.37,2013-10-13 00:28:00,
2013-10-12 20:30:00,69.4,60.0,30.04,North,358,0.0,0.0,72,0.00,BKN,,0.00,WeatherDisplay:10.37,2013-10-13 00:30:00,
2013-10-12 20:31:00,69.3,59.9,30.04,North,358,0.0,0.0,72,0.00,BKN,,0.00,WeatherDisplay:10.37,2013-10-13 00:31:00,
2013-10-12 20:32:00,69.3,59.9,30.05,North,358,0.0,0.0,72,0.00,BKN,,0.00,WeatherDisplay:10.37,2013-10-13 00:32:00,
2013-10-12 20:33:00,69.3,59.9,30.05,North,358,0.0,0.0,72,0.00,BKN,,0.00,WeatherDisplay:10.37,2013-10-13 00:33:00,
2013-10-12 20:34:00,69.3,60.3,30.05,North,358,0.0,0.0,73,0.00,BKN,,0.00,WeatherDisplay:10.37,2013-10-13 00:34:00,
2013-10-12 20:36:00,69.2,60.2,30.05,North,358,0.0,0.0,73,0.00,BKN,,0.00,WeatherDisplay:10.37,2013-10-13 00:36:00,
2013-10-12 20:37:00,69.2,60.2,30.05,North,358,0.0,0.0,73,0.00,BKN,,0.00,WeatherDisplay:10.37,2013-10-13 00:37:00,
2013-10-12 20:38:00,69.1,60.1,30.05,North,358,0.0,0.0,73,0.00,BKN,,0.00,WeatherDisplay:10.37,2013-10-13 00:38:00,
2013-10-12 20:39:00,69.0,60.0,30.05,North,358,0.0,0.0,73,0.00,BKN,,0.00,WeatherDisplay:10.37,2013-10-13 00:39:00,
2013-10-12 20:41:00,68.9,59.9,30.05,North,358,0.0,0.0,73,0.00,BKN,,0.00,WeatherDisplay:10.37,2013-10-13 00:41:00,
2013-10-12 20:42:00,68.9,59.9,30.05,North,358,0.0,0.0,73,0.00,BKN,,0.00,WeatherDisplay:10.37,2013-10-13 00:42:00,
2013-10-12 20:43:00,68.9,59.9,30.05,North,358,0.0,0.0,73,0.00,BKN,,0.00,WeatherDisplay:10.37,2013-10-13 00:43:00,
2013-10-12 20:44:00,68.9,59.9,30.05,North,358,0.0,0.0,73,0.00,BKN,,0.00,WeatherDisplay:10.37,2013-10-13 00:44:00,
2013-10-12 20:45:00,68.8,59.8,30.05,North,358,0.0,0.0,73,0.00,BKN,,0.00,WeatherDisplay:10.37,2013-10-13 00:45:00,
2013-10-12 20:46:00,68.8,59.8,30.05,North,358,0.0,0.0,73,0.00,BKN,,0.00,WeatherDisplay:10.37,2013-10-13 00:46:00,
2013-10-12 20:47:00,68.7,59.7,30.05,North,358,0.0,0.0,73,0.00,BKN,,0.00,WeatherDisplay:10.37,2013-10-13 00:47:00,
2013-10-12 20:48:00,68.7,60.1,30.05,North,358,0.0,0.0,74,0.00,BKN,,0.00,WeatherDisplay:10.37,2013-10-13 00:48:00,
2013-10-12 20:49:00,68.7,59.7,30.05,North,358,0.0,0.0,73,0.00,BKN,,0.00,WeatherDisplay:10.37,2013-10-13 00:49:00,
2013-10-12 20:50:00,68.7,60.1,30.05,North,358,0.0,0.0,74,0.00,BKN,,0.00,WeatherDisplay:10.37,2013-10-13 00:50:00,
2013-10-12 20:51:00,68.6,60.0,30.05,North,358,0.0,0.0,74,0.00,BKN,,0.00,WeatherDisplay:10.37,2013-10-13 00:51:00,
2013-10-12 20:52:00,68.6,59.6,30.05,North,358,0.0,0.0,73,0.00,BKN,,0.00,WeatherDisplay:10.37,2013-10-13 00:52:00,
2013-10-12 20:53:00,68.6,59.6,30.05,North,358,0.0,0.0,73,0.00,BKN,,0.00,WeatherDisplay:10.37,2013-10-13 00:53:00,
2013-10-12 20:54:00,68.6,59.6,30.05,North,358,0.0,0.0,73,0.00,BKN,,0.00,WeatherDisplay:10.37,2013-10-13 00:54:00,
2013-10-12 20:55:00,68.5,59.9,30.05,North,358,0.0,0.0,74,0.00,BKN,,0.00,WeatherDisplay:10.37,2013-10-13 00:55:00,
2013-10-12 20:56:00,68.5,59.9,30.05,North,358,0.0,0.0,74,0.00,BKN,,0.00,WeatherDisplay:10.37,2013-10-13 00:56:00,
2013-10-12 20:57:00,68.5,59.9,30.05,North,358,0.0,0.0,74,0.00,BKN,,0.00,WeatherDisplay:10.37,2013-10-13 00:57:00,
2013-10-12 20:58:00,68.4,59.8,30.05,North,358,0.0,0.0,74,0.00,BKN,,0.00,WeatherDisplay:10.37,2013-10-13 00:58:00,
2013-10-12 20:59:00,68.4,59.8,30.05,North,358,0.0,0.0,74,0.00,BKN,,0.00,WeatherDisplay:10.37,2013-10-13 00:59:00,
2013-10-12 21:01:00,68.3,59.7,30.05,North,358,0.0,0.0,74,0.00,BKN,,0.00,WeatherDisplay:10.37,2013-10-13 01:01:00,
2013-10-12 21:02:00,68.3,59.7,30.05,North,358,0.0,0.0,74,0.00,BKN,,0.00,WeatherDisplay:10.37,2013-10-13 01:02:00,
2013-10-12 21:03:00,68.2,59.6,30.05,North,358,0.0,0.0,74,0.00,BKN,,0.00,WeatherDisplay:10.37,2013-10-13 01:03:00,
2013-10-12 21:04:00,68.2,59.6,30.05,North,358,0.0,0.0,74,0.00,BKN,,0.00,WeatherDisplay:10.37,2013-10-13 01:04:00,
2013-10-12 21:06:00,68.1,59.5,30.05,North,358,0.0,0.0,74,0.00,BKN,,0.00,WeatherDisplay:10.37,2013-10-13 01:06:00,
2013-10-12 21:07:00,68.1,59.5,30.05,North,358,0.0,0.0,74,0.00,BKN,,0.00,WeatherDisplay:10.37,2013-10-13 01:07:00,
2013-10-12 21:08:00,68.0,59.8,30.05,North,358,0.0,0.0,75,0.00,BKN,,0.00,WeatherDisplay:10.37,2013-10-13 01:08:00,
2013-10-12 21:09:00,67.9,59.3,30.05,North,358,0.0,0.0,74,0.00,BKN,,0.00,WeatherDisplay:10.37,2013-10-13 01:09:00,
2013-10-12 21:10:00,67.9,59.7,30.05,North,358,0.0,0.0,75,0.00,BKN,,0.00,WeatherDisplay:10.37,2013-10-13 01:10:00,
2013-10-12 21:11:00,67.8,59.6,30.05,North,358,0.0,0.0,75,0.00,BKN,,0.00,WeatherDisplay:10.37,2013-10-13 01:11:00,
2013-10-12 21:12:00,67.8,59.6,30.05,North,358,0.0,0.0,75,0.00,BKN,,0.00,WeatherDisplay:10.37,2013-10-13 01:12:00,
2013-10-12 21:13:00,67.7,59.1,30.05,North,358,0.0,0.0,74,0.00,BKN,,0.00,WeatherDisplay:10.37,2013-10-13 01:13:00,
2013-10-12 21:14:00,67.7,59.5,30.05,North,358,0.0,0.0,75,0.00,BKN,,0.00,WeatherDisplay:10.37,2013-10-13 01:14:00,
2013-10-12 21:15:00,67.7,59.5,30.05,North,358,0.0,0.0,75,0.00,BKN,,0.00,WeatherDisplay:10.37,2013-10-13 01:15:00,
2013-10-12 21:17:00,67.6,59.4,30.05,North,358,0.0,0.0,75,0.00,BKN,,0.00,WeatherDisplay:10.37,2013-10-13 01:17:00,
2013-10-12 21:18:00,67.5,59.3,30.05,North,358,0.0,0.0,75,0.00,BKN,,0.00,WeatherDisplay:10.37,2013-10-13 01:18:00,
2013-10-12 21:19:00,67.5,59.7,30.05,North,358,0.0,0.0,76,0.00,BKN,,0.00,WeatherDisplay:10.37,2013-10-13 01:19:00,
2013-10-12 21:20:00,67.4,59.6,30.05,North,358,0.0,0.0,76,0.00,BKN,,0.00,WeatherDisplay:10.37,2013-10-13 01:20:00,
2013-10-12 21:22:00,67.3,59.5,30.05,North,358,0.0,0.0,76,0.00,BKN,,0.00,WeatherDisplay:10.37,2013-10-13 01:22:00,
2013-10-12 21:23:00,67.3,59.5,30.05,North,358,0.0,0.0,76,0.00,BKN,,0.00,WeatherDisplay:10.37,2013-10-13 01:23:00,
2013-10-12 21:24:00,67.1,59.3,30.05,North,358,0.0,0.0,76,0.00,BKN,,0.00,WeatherDisplay:10.37,2013-10-13 01:24:00,
2013-10-12 21:25:00,67.1,59.3,30.05,North,358,0.0,0.0,76,0.00,BKN,,0.00,WeatherDisplay:10.37,2013-10-13 01:25:00,
2013-10-12 21:27:00,67.1,59.6,30.05,North,358,0.0,0.0,77,0.00,BKN,,0.00,WeatherDisplay:10.37,2013-10-13 01:27:00,
2013-10-12 21:28:00,67.1,59.6,30.05,North,358,0.0,0.0,77,0.00,BKN,,0.00,WeatherDisplay:10.37,2013-10-13 01:28:00,
2013-10-12 21:29:00,67.1,59.6,30.05,North,358,0.0,0.0,77,0.00,BKN,,0.00,WeatherDisplay:10.37,2013-10-13 01:29:00,
2013-10-12 21:30:00,67.0,59.5,30.05,North,358,0.0,0.0,77,0.00,BKN,,0.00,WeatherDisplay:10.37,2013-10-13 01:30:00,
2013-10-12 21:32:00,67.0,59.5,30.05,North,358,0.0,0.0,77,0.00,BKN,,0.00,WeatherDisplay:10.37,2013-10-13 01:32:00,
2013-10-12 21:33:00,67.0,59.5,30.05,North,358,0.0,0.0,77,0.00,BKN,,0.00,WeatherDisplay:10.37,2013-10-13 01:33:00,
2013-10-12 21:34:00,67.0,59.5,30.06,North,358,0.0,0.0,77,0.00,BKN,,0.00,WeatherDisplay:10.37,2013-10-13 01:34:00,
2013-10-12 21:35:00,66.9,59.5,30.05,North,358,0.0,0.0,77,0.00,BKN,,0.00,WeatherDisplay:10.37,2013-10-13 01:35:00,
2013-10-12 21:38:00,66.9,59.5,30.05,North,358,0.0,0.0,77,0.00,BKN,,0.00,WeatherDisplay:10.37,2013-10-13 01:38:00,
2013-10-12 21:39:00,66.9,59.5,30.05,North,358,0.0,0.0,77,0.00,BKN,,0.00,WeatherDisplay:10.37,2013-10-13 01:39:00,
2013-10-12 21:40:00,66.8,59.7,30.06,North,358,0.0,0.0,78,0.00,BKN,,0.00,WeatherDisplay:10.37,2013-10-13 01:40:00,
2013-10-12 21:41:00,66.8,59.7,30.06,North,358,0.0,0.0,78,0.00,BKN,,0.00,WeatherDisplay:10.37,2013-10-13 01:41:00,
2013-10-12 21:43:00,66.5,59.4,30.06,North,358,0.0,0.0,78,0.00,BKN,,0.00,WeatherDisplay:10.37,2013-10-13 01:43:00,
2013-10-12 21:44:00,66.3,59.2,30.06,North,358,0.0,0.0,78,0.00,BKN,,0.00,WeatherDisplay:10.37,2013-10-13 01:44:00,
2013-10-12 21:45:00,66.2,59.5,30.06,North,358,0.0,0.0,79,0.00,BKN,,0.00,WeatherDisplay:10.37,2013-10-13 01:45:00,
2013-10-12 21:46:00,66.2,59.5,30.06,North,358,0.0,0.0,79,0.00,BKN,,0.00,WeatherDisplay:10.37,2013-10-13 01:46:00,
2013-10-12 21:48:00,66.1,59.4,30.06,North,358,0.0,0.0,79,0.00,BKN,,0.00,WeatherDisplay:10.37,2013-10-13 01:48:00,
2013-10-12 21:49:00,66.1,59.4,30.06,North,358,0.0,0.0,79,0.00,BKN,,0.00,WeatherDisplay:10.37,2013-10-13 01:49:00,
2013-10-12 21:50:00,66.2,59.5,30.06,North,358,0.0,0.0,79,0.00,BKN,,0.00,WeatherDisplay:10.37,2013-10-13 01:50:00,
2013-10-12 21:51:00,66.3,59.6,30.06,North,358,0.0,0.0,79,0.00,BKN,,0.00,WeatherDisplay:10.37,2013-10-13 01:51:00,
2013-10-12 21:53:00,66.5,59.4,30.06,North,358,0.0,0.0,78,0.00,BKN,,0.00,WeatherDisplay:10.37,2013-10-13 01:53:00,
2013-10-12 21:54:00,66.5,59.4,30.06,North,358,0.0,0.0,78,0.00,BKN,,0.00,WeatherDisplay:10.37,2013-10-13 01:54:00,
2013-10-12 21:55:00,66.5,59.4,30.06,North,358,0.0,0.0,78,0.00,BKN,,0.00,WeatherDisplay:10.37,2013-10-13 01:55:00,
2013-10-12 21:57:00,66.6,59.2,30.06,North,358,0.0,0.0,77,0.00,BKN,,0.00,WeatherDisplay:10.37,2013-10-13 01:57:00,
2013-10-12 21:58:00,66.6,59.2,30.06,North,358,0.0,0.0,77,0.00,BKN,,0.00,WeatherDisplay:10.37,2013-10-13 01:58:00,
2013-10-12 21:59:00,66.6,59.2,30.06,North,358,0.0,0.0,77,0.00,BKN,,0.00,WeatherDisplay:10.37,2013-10-13 01:59:00,
2013-10-12 22:00:00,66.6,59.2,30.06,North,358,0.0,0.0,77,0.00,BKN,,0.00,WeatherDisplay:10.37,2013-10-13 02:00:00,
2013-10-12 22:01:00,66.6,59.2,30.06,North,358,0.0,0.0,77,0.00,BKN,,0.00,WeatherDisplay:10.37,2013-10-13 02:01:00,
2013-10-12 22:02:00,66.6,59.2,30.07,North,358,0.0,0.0,77,0.00,BKN,,0.00,WeatherDisplay:10.37,2013-10-13 02:02:00,
2013-10-12 22:03:00,66.6,59.2,30.07,North,358,0.0,0.0,77,0.00,BKN,,0.00,WeatherDisplay:10.37,2013-10-13 02:03:00,
2013-10-12 22:04:00,66.6,59.2,30.07,North,358,0.0,0.0,77,0.00,BKN,,0.00,WeatherDisplay:10.37,2013-10-13 02:04:00,
2013-10-12 22:06:00,66.6,59.2,30.07,North,358,0.0,0.0,77,0.00,BKN,,0.00,WeatherDisplay:10.37,2013-10-13 02:06:00,
2013-10-12 22:07:00,66.6,59.2,30.07,North,358,0.0,0.0,77,0.00,BKN,,0.00,WeatherDisplay:10.37,2013-10-13 02:07:00,
2013-10-12 22:09:00,66.5,59.1,30.07,North,358,0.0,0.0,77,0.00,BKN,,0.00,WeatherDisplay:10.37,2013-10-13 02:09:00,
2013-10-12 22:10:00,66.5,59.1,30.07,North,358,0.0,0.0,77,0.00,BKN,,0.00,WeatherDisplay:10.37,2013-10-13 02:10:00,
2013-10-12 22:11:00,66.5,59.4,30.07,North,358,0.0,0.0,78,0.00,BKN,,0.00,WeatherDisplay:10.37,2013-10-13 02:11:00,
2013-10-12 22:12:00,66.4,59.3,30.07,North,358,0.0,0.0,78,0.00,BKN,,0.00,WeatherDisplay:10.37,2013-10-13 02:12:00,
2013-10-12 22:14:00,66.4,59.3,30.07,North,358,0.0,0.0,78,0.00,BKN,,0.00,WeatherDisplay:10.37,2013-10-13 02:14:00,
2013-10-12 22:15:00,66.4,59.3,30.07,North,358,0.0,0.0,78,0.00,BKN,,0.00,WeatherDisplay:10.37,2013-10-13 02:15:00,
2013-10-12 22:16:00,66.4,59.3,30.07,North,358,0.0,0.0,78,0.00,BKN,,0.00,WeatherDisplay:10.37,2013-10-13 02:16:00,
2013-10-12 22:17:00,66.4,59.0,30.07,North,358,0.0,0.0,77,0.00,BKN,,0.00,WeatherDisplay:10.37,2013-10-13 02:17:00,
2013-10-12 22:18:00,66.5,59.1,30.07,North,358,0.0,0.0,77,0.00,BKN,,0.00,WeatherDisplay:10.37,2013-10-13 02:18:00,
2013-10-12 22:20:00,66.3,58.9,30.07,North,358,0.0,0.0,77,0.00,BKN,,0.00,WeatherDisplay:10.37,2013-10-13 02:20:00,
2013-10-12 22:21:00,66.3,59.2,30.07,North,358,0.0,0.0,78,0.00,BKN,,0.00,WeatherDisplay:10.37,2013-10-13 02:21:00,
2013-10-12 22:22:00,66.2,59.1,30.07,North,358,0.0,0.0,78,0.00,BKN,,0.00,WeatherDisplay:10.37,2013-10-13 02:22:00,
2013-10-12 22:23:00,66.2,59.1,30.07,North,358,0.0,0.0,78,0.00,BKN,,0.00,WeatherDisplay:10.37,2013-10-13 02:23:00,
2013-10-12 22:25:00,66.1,59.0,30.07,North,358,0.0,0.0,78,0.00,BKN,,0.00,WeatherDisplay:10.37,2013-10-13 02:25:00,
2013-10-12 22:26:00,66.1,59.0,30.08,North,358,0.0,0.0,78,0.00,BKN,,0.00,WeatherDisplay:10.37,2013-10-13 02:26:00,
2013-10-12 22:27:00,66.1,59.0,30.07,North,358,0.0,0.0,78,0.00,BKN,,0.00,WeatherDisplay:10.37,2013-10-13 02:27:00,
2013-10-12 22:29:00,66.1,59.0,30.07,North,358,0.0,0.0,78,0.00,BKN,,0.00,WeatherDisplay:10.37,2013-10-13 02:29:00,
2013-10-12 22:30:00,66.1,59.0,30.07,North,358,0.0,0.0,78,0.00,BKN,,0.00,WeatherDisplay:10.37,2013-10-13 02:30:00,
2013-10-12 22:31:00,66.0,58.9,30.07,North,358,0.0,0.0,78,0.00,BKN,,0.00,WeatherDisplay:10.37,2013-10-13 02:31:00,
2013-10-12 22:32:00,66.1,59.0,30.07,North,358,0.0,0.0,78,0.00,BKN,,0.00,WeatherDisplay:10.37,2013-10-13 02:32:00,
2013-10-12 22:34:00,66.0,58.9,30.07,North,358,0.0,0.0,78,0.00,BKN,,0.00,WeatherDisplay:10.37,2013-10-13 02:34:00,
2013-10-12 22:36:00,66.0,58.9,30.08,North,358,0.0,0.0,78,0.00,BKN,,0.00,WeatherDisplay:10.37,2013-10-13 02:36:00,
2013-10-12 22:37:00,66.0,58.9,30.08,North,358,0.0,0.0,78,0.00,BKN,,0.00,WeatherDisplay:10.37,2013-10-13 02:37:00,
2013-10-12 22:38:00,66.0,58.9,30.08,North,358,0.0,0.0,78,0.00,BKN,,0.00,WeatherDisplay:10.37,2013-10-13 02:38:00,
2013-10-12 22:39:00,65.9,58.8,30.08,North,358,0.0,0.0,78,0.00,BKN,,0.00,WeatherDisplay:10.37,2013-10-13 02:39:00,
2013-10-12 22:41:00,65.9,58.8,30.08,North,358,0.0,0.0,78,0.00,BKN,,0.00,WeatherDisplay:10.37,2013-10-13 02:41:00,
2013-10-12 22:42:00,65.9,58.8,30.08,North,358,0.0,0.0,78,0.00,BKN,,0.00,WeatherDisplay:10.37,2013-10-13 02:42:00,
2013-10-12 22:43:00,65.9,58.8,30.08,North,358,0.0,0.0,78,0.00,BKN,,0.00,WeatherDisplay:10.37,2013-10-13 02:43:00,
2013-10-12 22:45:00,65.9,58.8,30.08,North,358,0.0,0.0,78,0.00,BKN,,0.00,WeatherDisplay:10.37,2013-10-13 02:45:00,
2013-10-12 22:46:00,65.9,58.8,30.08,North,358,0.0,0.0,78,0.00,BKN,,0.00,WeatherDisplay:10.37,2013-10-13 02:46:00,
2013-10-12 22:47:00,65.8,58.7,30.08,North,358,0.0,0.0,78,0.00,BKN,,0.00,WeatherDisplay:10.37,2013-10-13 02:47:00,
2013-10-12 22:48:00,65.8,58.7,30.08,North,358,0.0,0.0,78,0.00,BKN,,0.00,WeatherDisplay:10.37,2013-10-13 02:48:00,
2013-10-12 22:50:00,65.8,58.7,30.08,North,358,0.0,0.0,78,0.00,BKN,,0.00,WeatherDisplay:10.37,2013-10-13 02:50:00,
2013-10-12 22:51:00,65.7,58.7,30.08,North,358,0.0,0.0,78,0.00,BKN,,0.00,WeatherDisplay:10.37,2013-10-13 02:51:00,
2013-10-12 22:52:00,65.7,58.7,30.08,North,358,0.0,0.0,78,0.00,BKN,,0.00,WeatherDisplay:10.37,2013-10-13 02:52:00,
2013-10-12 22:53:00,65.7,59.0,30.08,North,358,0.0,0.0,79,0.00,BKN,,0.00,WeatherDisplay:10.37,2013-10-13 02:53:00,
2013-10-12 22:55:00,65.6,58.6,30.08,North,358,0.0,0.0,78,0.00,BKN,,0.00,WeatherDisplay:10.37,2013-10-13 02:55:00,
2013-10-12 22:56:00,65.6,58.6,30.08,North,358,0.0,0.0,78,0.00,BKN,,0.00,WeatherDisplay:10.37,2013-10-13 02:56:00,
2013-10-12 22:57:00,65.5,58.8,30.08,North,358,0.0,0.0,79,0.00,BKN,,0.00,WeatherDisplay:10.37,2013-10-13 02:57:00,
2013-10-12 22:58:00,65.5,58.8,30.08,North,358,0.0,0.0,79,0.00,BKN,,0.00,WeatherDisplay:10.37,2013-10-13 02:58:00,
2013-10-12 23:00:00,65.5,58.8,30.08,North,358,0.0,0.0,79,0.00,BKN,,0.00,WeatherDisplay:10.37,2013-10-13 03:00:00,
2013-10-12 23:02:00,65.5,58.8,30.08,North,358,0.0,0.0,79,0.00,BKN,,0.00,WeatherDisplay:10.37,2013-10-13 03:02:00,
2013-10-12 23:03:00,65.5,58.8,30.08,North,358,0.0,0.0,79,0.00,BKN,,0.00,WeatherDisplay:10.37,2013-10-13 03:03:00,
2013-10-12 23:04:00,65.5,58.8,30.08,North,358,0.0,0.0,79,0.00,BKN,,0.00,WeatherDisplay:10.37,2013-10-13 03:04:00,
2013-10-12 23:05:00,65.5,58.8,30.08,North,358,0.0,0.0,79,0.00,BKN,,0.00,WeatherDisplay:10.37,2013-10-13 03:05:00,
2013-10-12 23:07:00,65.4,58.7,30.08,North,358,0.0,0.0,79,0.00,BKN,,0.00,WeatherDisplay:10.37,2013-10-13 03:07:00,
2013-10-12 23:08:00,65.4,58.7,30.08,North,358,0.0,0.0,79,0.00,BKN,,0.00,WeatherDisplay:10.37,2013-10-13 03:08:00,
2013-10-12 23:09:00,65.4,58.7,30.08,North,358,0.0,0.0,79,0.00,BKN,,0.00,WeatherDisplay:10.37,2013-10-13 03:09:00,
2013-10-12 23:11:00,65.3,58.6,30.08,North,358,0.0,0.0,79,0.00,BKN,,0.00,WeatherDisplay:10.37,2013-10-13 03:11:00,
2013-10-12 23:12:00,65.3,58.6,30.08,North,358,0.0,0.0,79,0.00,BKN,,0.00,WeatherDisplay:10.37,2013-10-13 03:12:00,
2013-10-12 23:13:00,65.2,58.5,30.08,North,358,0.0,0.0,79,0.00,BKN,,0.00,WeatherDisplay:10.37,2013-10-13 03:13:00,
2013-10-12 23:14:00,65.2,58.9,30.08,North,358,0.0,0.0,80,0.00,BKN,,0.00,WeatherDisplay:10.37,2013-10-13 03:14:00,
2013-10-12 23:16:00,65.2,58.9,30.08,North,358,0.0,0.0,80,0.00,BKN,,0.00,WeatherDisplay:10.37,2013-10-13 03:16:00,
2013-10-12 23:17:00,65.1,58.8,30.08,North,358,0.0,0.0,80,0.00,BKN,,0.00,WeatherDisplay:10.37,2013-10-13 03:17:00,
2013-10-12 23:18:00,65.0,58.7,30.08,North,358,0.0,0.0,80,0.00,BKN,,0.00,WeatherDisplay:10.37,2013-10-13 03:18:00,
2013-10-12 23:19:00,64.9,58.6,30.08,North,358,0.0,0.0,80,0.00,BKN,,0.00,WeatherDisplay:10.37,2013-10-13 03:19:00,
2013-10-12 23:21:00,64.8,58.5,30.09,North,358,0.0,0.0,80,0.00,BKN,,0.00,WeatherDisplay:10.37,2013-10-13 03:21:00,
2013-10-12 23:22:00,64.7,58.4,30.08,North,358,0.0,0.0,80,0.00,BKN,,0.00,WeatherDisplay:10.37,2013-10-13 03:22:00,
2013-10-12 23:23:00,64.7,58.4,30.09,North,358,0.0,0.0,80,0.00,BKN,,0.00,WeatherDisplay:10.37,2013-10-13 03:23:00,
2013-10-12 23:24:00,64.7,58.7,30.09,North,358,0.0,0.0,81,0.00,BKN,,0.00,WeatherDisplay:10.37,2013-10-13 03:24:00,
2013-10-12 23:26:00,64.6,58.6,30.09,North,358,0.0,0.0,81,0.00,BKN,,0.00,WeatherDisplay:10.37,2013-10-13 03:26:00,
2013-10-12 23:27:00,64.5,58.5,30.09,North,358,0.0,0.0,81,0.00,BKN,,0.00,WeatherDisplay:10.37,2013-10-13 03:27:00,
2013-10-12 23:28:00,64.5,58.5,30.09,North,358,0.0,0.0,81,0.00,BKN,,0.00,WeatherDisplay:10.37,2013-10-13 03:28:00,
2013-10-12 23:29:00,64.5,58.5,30.09,North,358,0.0,0.0,81,0.00,BKN,,0.00,WeatherDisplay:10.37,2013-10-13 03:29:00,
2013-10-12 23:31:00,64.4,58.4,30.09,North,358,0.0,0.0,81,0.00,BKN,,0.00,WeatherDisplay:10.37,2013-10-13 03:31:00,
2013-10-12 23:33:00,64.4,58.4,30.09,North,358,0.0,0.0,81,0.00,BKN,,0.00,WeatherDisplay:10.37,2013-10-13 03:33:00,
2013-10-12 23:34:00,64.4,58.4,30.09,North,358,0.0,0.0,81,0.00,BKN,,0.00,WeatherDisplay:10.37,2013-10-13 03:34:00,
2013-10-12 23:35:00,64.4,58.4,30.09,North,358,0.0,0.0,81,0.00,BKN,,0.00,WeatherDisplay:10.37,2013-10-13 03:35:00,
2013-10-12 23:37:00,64.4,58.4,30.09,North,358,0.0,0.0,81,0.00,BKN,,0.00,WeatherDisplay:10.37,2013-10-13 03:37:00,
2013-10-12 23:38:00,64.4,58.4,30.09,North,358,0.0,0.0,81,0.00,BKN,,0.00,WeatherDisplay:10.37,2013-10-13 03:38:00,
2013-10-12 23:40:00,64.4,58.1,30.09,North,358,0.0,0.0,80,0.00,BKN,,0.00,WeatherDisplay:10.37,2013-10-13 03:40:00,
2013-10-12 23:42:00,64.3,58.3,30.09,North,358,0.0,0.0,81,0.00,BKN,,0.00,WeatherDisplay:10.37,2013-10-13 03:42:00,
2013-10-12 23:43:00,64.2,58.2,30.09,North,358,0.0,0.0,81,0.00,BKN,,0.00,WeatherDisplay:10.37,2013-10-13 03:43:00,
2013-10-12 23:44:00,64.2,58.2,30.09,North,358,0.0,0.0,81,0.00,BKN,,0.00,WeatherDisplay:10.37,2013-10-13 03:44:00,
2013-10-12 23:45:00,64.2,58.2,30.09,North,358,0.0,0.0,81,0.00,BKN,,0.00,WeatherDisplay:10.37,2013-10-13 03:45:00,
2013-10-12 23:46:00,64.1,58.5,30.10,North,358,0.0,0.0,82,0.00,BKN,,0.00,WeatherDisplay:10.37,2013-10-13 03:46:00,
2013-10-12 23:47:00,64.0,58.7,30.09,North,358,0.0,0.0,83,0.00,BKN,,0.00,WeatherDisplay:10.37,2013-10-13 03:47:00,
2013-10-12 23:48:00,64.0,58.7,30.09,North,358,0.0,0.0,83,0.00,BKN,,0.00,WeatherDisplay:10.37,2013-10-13 03:48:00,
2013-10-12 23:49:00,63.9,58.6,30.10,North,358,0.0,0.0,83,0.00,BKN,,0.00,WeatherDisplay:10.37,2013-10-13 03:49:00,
2013-10-12 23:50:00,64.0,58.7,30.09,North,358,0.0,0.0,83,0.00,BKN,,0.00,WeatherDisplay:10.37,2013-10-13 03:50:00,
2013-10-12 23:51:00,64.0,58.4,30.09,North,358,0.0,0.0,82,0.00,BKN,,0.00,WeatherDisplay:10.37,2013-10-13 03:51:00,
2013-10-12 23:53:00,64.0,58.1,30.09,North,358,0.0,0.0,81,0.00,BKN,,0.00,WeatherDisplay:10.37,2013-10-13 03:53:00,
2013-10-12 23:54:00,64.0,58.1,30.10,North,358,0.0,0.0,81,0.00,BKN,,0.00,WeatherDisplay:10.37,2013-10-13 03:54:00,
2013-10-12 23:55:00,64.0,58.1,30.09,North,358,0.0,0.0,81,0.00,BKN,,0.00,WeatherDisplay:10.37,2013-10-13 03:55:00,
2013-10-12 23:57:00,64.0,57.7,30.10,North,358,0.0,0.0,80,0.00,BKN,,0.00,WeatherDisplay:10.37,2013-10-13 03:57:00,
2013-10-12 23:59:00,63.9,58.0,30.09,North,358,0.0,0.0,81,0.00,BKN,,0.00,WeatherDisplay:10.37,2013-10-13 03:59:00,